GFSFLT1_sfc_30mbdewp_000.txt.gz
Dewpoint
57 54 54 55 55 56 55 56 56 56 57 57 57 56 55 55 54 56 58 55 55 55 55 54 53 53 53 51 53 52 53 52 51
57 58 57 57 58 57 56 56 56 57 56 58 57 56 54 52 52 54 55 55 55 54 53 54 53 52 52 50 52 51 50 50 50
58 58 60 58 59 57 55 55 56 57 57 56 57 55 53 50 50 54 54 55 54 53 52 53 53 53 52 50 50 50 50 49 49
60 61 61 61 58 56 54 51 53 56 57 56 57 55 53 51 51 51 54 54 53 53 51 51 52 52 52 50 49 48 49 49 49
61 61 61 60 58 55 50 49 51 55 57 56 54 56 53 47 49 52 55 54 52 51 50 49 49 49 49 49 49 48 48 48 48
59 59 60 59 58 55 50 49 52 53 54 55 54 55 53 46 47 53 57 54 52 50 50 47 47 48 48 48 49 49 48 48 48
58 60 60 59 58 56 52 50 50 51 47 48 54 55 49 45 46 54 57 54 54 52 51 49 48 48 49 49 50 50 50 50 50
57 59 59 59 60 58 55 54 54 50 46 46 52 51 45 40 38 52 57 55 54 55 54 53 51 50 50 50 50 50 50 50 50
55 55 57 56 56 57 54 51 50 46 43 42 39 42 41 39 34 46 56 55 53 55 55 54 54 50 50 50 51 51 51 51 52
52 52 53 52 52 52 51 49 47 46 43 41 39 36 35 36 36 33 53 56 54 52 52 53 53 53 50 50 51 51 51 52 52
52 51 51 52 51 51 51 49 47 47 48 46 40 37 35 35 36 38 38 49 52 48 47 48 49 50 50 50 50 50 51 51 51
54 51 51 52 52 52 52 51 50 48 48 48 47 41 37 36 36 36 38 44 49 48 45 45 45 46 48 49 49 50 52 53 53
55 54 51 52 53 53 53 52 51 50 50 49 49 45 42 40 38 37 37 38 42 49 50 50 47 47 47 48 49 49 52 53 54
55 55 54 52 52 53 53 53 52 52 51 50 49 49 48 45 41 39 39 38 39 40 45 50 51 51 49 48 48 49 51 53 54
55 55 56 54 52 53 54 53 53 52 52 51 50 49 48 48 48 47 45 44 42 42 40 44 51 52 51 48 47 48 50 53 53
56 56 56 56 55 53 54 54 53 53 53 52 51 51 51 49 48 48 48 48 47 45 44 44 43 44 52 52 50 49 50 50 52
57 56 57 57 57 56 54 54 54 54 54 52 51 49 50 51 51 50 49 49 49 48 45 43 45 45 45 48 52 54 50 50 51
59 58 58 58 58 57 57 55 54 54 55 54 52 49 47 47 48 49 50 50 50 49 48 46 44 44 45 45 47 50 53 50 53
59 59 59 59 59 59 59 58 56 55 54 55 54 52 50 47 46 47 46 45 45 44 45 44 44 46 47 47 47 47 49 50 51
59 59 59 59 60 60 59 59 58 57 56 55 54 54 53 52 50 48 49 47 46 45 46 47 47 47 50 49 49 50 52 53 53

GFSFLT1_sfc_30mbdewp_003.txt.gz
Dewpoint
57 55 55 56 56 56 55 57 57 55 56 58 58 56 55 56 53 57 57 55 56 55 55 54 54 53 52 53 52 52 52 51 52
58 58 57 57 58 57 56 56 57 57 57 58 58 57 55 53 51 57 55 56 55 54 54 54 53 52 50 52 51 51 50 49 50
59 58 58 58 60 59 57 56 57 58 57 57 58 56 54 52 50 55 56 56 55 54 53 53 54 53 51 50 51 50 50 49 49
59 60 61 60 61 58 56 54 54 57 57 57 58 56 55 53 50 54 55 56 54 54 52 53 53 53 52 50 49 49 50 49 49
62 62 62 62 60 58 56 52 51 53 57 58 57 58 55 51 47 52 54 54 53 53 51 50 50 51 50 50 50 49 48 48 48
62 62 62 61 60 58 55 50 51 55 57 57 57 56 56 50 45 50 57 55 53 52 52 49 48 49 49 48 49 50 50 49 49
60 61 62 61 60 59 56 51 51 55 52 53 57 55 54 49 46 48 59 56 53 52 51 50 49 48 50 50 50 50 51 51 50
59 60 61 60 60 59 58 54 52 52 51 47 47 52 52 47 44 47 60 57 54 53 54 54 52 51 51 51 51 52 51 51 51
57 59 59 59 59 59 58 56 53 52 48 47 47 50 50 44 42 40 61 59 56 54 54 56 56 55 52 52 52 52 52 52 52
55 56 56 57 57 57 57 55 53 51 48 44 43 44 45 44 40 36 54 59 58 54 54 54 55 56 55 53 52 52 53 53 53
53 53 54 54 55 54 54 53 52 48 48 44 42 41 39 36 36 37 36 57 58 56 51 52 52 53 53 54 53 53 53 53 53
54 53 52 52 53 51 51 51 50 49 47 48 48 44 40 37 36 35 37 39 54 55 47 47 48 50 51 51 51 54 55 55 56
55 54 53 52 53 53 52 52 51 51 49 48 48 48 45 41 38 37 36 37 39 50 54 51 51 52 49 49 50 52 54 55 56
55 55 55 53 52 53 53 53 53 52 52 51 50 49 49 48 45 41 39 38 39 40 44 53 52 52 52 47 48 50 53 55 55
55 55 55 55 53 53 54 53 53 53 52 52 51 51 50 49 49 47 44 42 40 40 40 41 50 53 52 51 47 48 51 54 55
55 55 56 56 55 53 53 53 53 53 53 52 51 52 51 50 49 49 48 48 46 44 42 41 42 43 53 52 51 50 49 52 54
56 56 56 56 56 56 54 53 53 53 54 52 51 50 51 51 52 51 49 48 47 48 47 46 45 44 44 46 52 52 50 49 50
59 58 57 57 57 56 57 55 54 53 54 54 52 50 48 48 49 51 51 51 50 50 49 48 46 45 45 46 47 50 52 50 50
59 59 59 58 58 58 58 58 57 55 54 55 54 53 50 48 48 48 48 49 50 50 50 50 48 46 45 45 46 47 50 50 50
59 59 59 60 60 59 59 59 59 59 56 55 55 54 54 53 51 49 49 50 48 47 48 48 46 45 45 46 46 48 49 50 51

GFSFLT1_sfc_30mbdewp_006.txt.gz
Dewpoint
58 56 56 57 56 56 56 57 57 55 55 55 57 55 55 56 52 58 58 54 55 55 55 55 54 53 53 53 52 52 52 52 52
57 57 56 57 57 57 56 56 57 55 57 58 57 56 55 53 50 56 56 56 56 55 55 54 53 52 51 53 51 51 50 50 50
58 59 58 58 60 59 58 56 56 58 57 57 59 58 56 53 50 56 55 57 55 54 54 54 53 52 50 51 51 51 50 49 49
60 59 60 60 60 60 58 56 56 56 58 57 57 58 56 54 50 53 55 57 55 54 53 54 54 53 52 50 51 50 50 50 49
61 62 61 61 61 60 58 57 54 54 57 58 58 59 58 54 50 48 53 58 53 55 52 52 53 53 53 51 49 49 49 50 50
61 62 61 62 61 60 59 56 52 52 54 58 59 59 57 54 48 46 54 57 53 54 53 51 50 51 51 50 50 50 50 49 49
60 61 61 61 61 61 59 57 54 54 56 56 58 58 56 54 50 46 50 58 56 55 53 53 50 49 50 50 50 50 51 51 51
58 59 60 62 61 60 60 58 56 53 53 52 50 52 54 53 50 45 50 54 57 56 53 53 52 50 50 51 51 51 51 52 52
57 58 59 60 59 59 58 57 56 53 52 51 48 46 49 51 49 44 48 54 58 56 55 54 54 54 52 52 52 52 53 53 53
56 57 59 59 59 58 57 57 56 55 52 50 47 46 48 49 48 43 44 50 60 56 56 55 55 56 56 55 54 53 53 53 54
56 55 57 57 57 57 57 56 55 54 52 50 47 44 44 45 46 44 42 44 58 59 52 54 55 55 55 56 57 57 56 55 55
56 55 54 54 54 55 55 54 53 52 51 49 47 45 43 41 39 38 37 38 48 58 54 51 53 55 54 54 55 58 59 58 57
55 55 54 53 53 53 52 51 51 51 50 49 48 48 48 46 43 40 37 37 37 41 55 55 52 52 53 50 52 56 57 58 58
55 55 55 54 53 52 52 52 52 51 51 51 51 50 49 49 48 45 41 38 38 38 39 48 54 52 52 49 48 52 54 56 57
55 55 55 55 54 53 53 52 52 52 52 52 52 52 52 51 50 49 48 45 41 39 39 39 43 52 52 51 51 51 52 53 55
54 55 55 55 55 54 54 53 52 52 53 52 52 52 52 52 52 51 50 49 48 45 43 41 41 41 48 53 53 53 53 53 53
56 55 55 55 55 55 55 54 53 53 53 52 52 50 51 52 52 52 51 51 50 49 47 45 43 43 43 43 51 53 53 51 52
59 58 57 56 56 56 56 56 54 54 55 54 53 51 49 49 49 50 52 52 51 50 49 48 48 47 46 46 47 50 52 51 51
59 59 59 59 58 57 57 57 57 56 54 56 54 54 54 51 50 51 49 50 50 51 51 51 50 49 48 47 47 48 50 51 52
53 55 58 59 59 59 58 58 58 58 57 57 56 55 55 54 53 51 51 52 50 50 50 50 50 50 50 49 48 49 50 51 52

GFSFLT1_sfc_30mbdewp_009.txt.gz
Dewpoint
59 57 56 57 57 57 57 58 57 56 56 55 57 57 55 56 51 58 59 57 56 56 55 56 55 55 55 54 53 53 52 52 52
57 57 56 57 57 57 56 56 58 57 55 56 57 57 56 54 50 56 57 54 56 55 55 55 54 53 52 53 52 51 51 51 51
57 59 58 57 58 58 58 56 56 57 58 57 57 59 58 54 50 53 56 56 56 56 56 55 54 53 51 53 52 51 50 50 50
59 59 59 59 59 61 60 59 57 56 57 58 57 59 60 56 51 50 56 57 56 54 55 54 55 54 53 51 52 52 51 50 50
61 61 61 60 61 61 61 59 58 56 55 57 58 59 60 58 53 49 52 57 58 55 55 54 54 54 54 52 51 51 51 51 50
60 61 62 61 61 62 61 60 59 57 55 56 59 59 59 58 54 49 50 55 58 55 55 55 53 54 54 53 52 51 50 50 51
59 60 62 61 61 61 61 60 59 58 54 54 57 59 58 56 54 51 50 52 57 57 54 55 53 52 52 53 52 52 52 51 51
58 58 59 61 61 61 61 60 59 57 54 54 53 53 54 55 54 52 52 51 54 57 57 56 55 54 52 52 52 51 51 52 52
57 57 57 58 60 60 59 58 58 56 54 52 51 50 48 49 51 51 52 51 52 54 57 57 57 55 54 52 52 52 52 53 53
57 57 57 58 59 58 58 57 57 56 55 54 52 50 48 47 47 48 49 51 50 51 54 57 57 56 56 55 54 54 53 53 54
57 56 56 57 58 58 57 57 56 56 55 54 53 51 48 46 47 48 48 50 51 49 50 54 56 56 56 57 58 59 58 57 57
57 56 55 55 56 56 56 56 55 55 54 53 52 50 48 46 44 43 42 43 46 50 50 50 53 56 55 55 58 59 60 60 59
56 56 55 55 54 54 53 53 52 52 52 51 51 50 49 48 46 44 42 41 39 40 45 51 53 55 55 50 53 57 58 58 59
55 55 55 55 54 53 53 53 52 51 51 51 51 51 50 50 49 48 47 44 43 41 41 44 49 53 53 51 49 52 54 55 57
55 55 55 55 54 54 53 53 53 52 52 51 51 52 52 52 51 51 50 49 46 44 43 43 43 47 49 52 51 53 53 53 54
53 54 54 54 54 54 54 53 53 53 53 52 52 53 53 52 53 52 52 52 51 49 45 44 43 43 46 49 51 53 55 54 54
56 55 55 55 55 55 55 54 54 53 53 52 53 51 52 52 53 53 52 52 52 51 50 48 46 45 45 45 47 51 52 53 55
59 59 58 57 57 56 56 56 55 54 55 54 53 52 50 51 51 51 52 52 52 52 51 50 49 47 46 46 46 48 49 50 52
48 50 53 56 59 58 57 57 57 56 55 56 55 54 54 52 52 53 52 51 51 52 52 51 50 49 49 49 49 49 50 51 52
45 44 44 45 49 52 55 57 58 58 57 57 57 57 55 55 53 51 51 53 53 52 51 51 51 51 51 50 50 50 51 52 53

GFSFLT1_sfc_30mbdewp_012.txt.gz
Dewpoint
61 58 57 57 57 57 57 58 58 57 57 56 57 58 55 57 52 55 59 59 58 56 56 58 58 56 57 56 53 54 54 53 53
58 58 57 57 57 57 57 56 58 58 57 56 57 57 57 55 51 52 58 58 57 56 56 55 55 54 53 54 53 53 52 52 52
58 59 58 58 58 58 58 57 56 56 58 57 57 57 59 56 52 50 55 57 57 57 56 56 55 54 53 53 53 52 52 51 51
60 59 60 59 59 59 61 60 59 57 56 57 57 58 59 59 55 51 51 57 58 58 56 56 56 55 54 52 54 53 52 51 51
61 61 61 60 60 61 61 61 60 59 58 56 57 59 59 60 58 54 50 56 59 59 56 56 56 55 55 54 52 53 53 52 51
59 60 61 62 61 60 62 62 61 60 60 57 57 59 59 58 57 56 53 53 58 58 58 56 56 55 55 55 54 52 52 52 53
59 59 60 61 62 61 61 60 61 61 59 56 55 55 57 58 57 56 56 55 53 57 58 57 56 56 54 55 55 54 53 52 52
58 58 58 58 59 60 60 60 60 59 58 56 54 53 53 54 55 56 57 56 53 54 55 57 58 57 57 54 54 54 54 53 53
58 57 57 57 57 58 58 59 59 58 57 56 54 53 51 50 50 51 53 54 54 52 52 55 57 59 58 57 55 55 55 54 53
58 57 57 57 57 57 57 57 57 57 56 56 55 53 52 51 49 48 49 50 51 52 51 51 54 55 58 59 58 58 57 56 56
58 57 57 56 56 57 57 57 57 57 56 55 54 54 53 52 50 48 47 49 50 52 52 52 49 52 55 59 60 60 59 58 58
58 57 57 56 56 56 56 56 56 56 55 55 54 54 53 51 50 48 47 47 50 51 52 52 51 49 50 52 58 59 59 59 59
57 57 57 56 55 55 55 54 54 53 53 53 53 52 52 51 50 49 48 47 45 45 48 51 52 52 50 50 52 56 57 58 59
56 56 56 56 55 54 54 53 53 52 53 52 52 52 51 51 50 50 49 48 47 46 45 48 50 52 53 51 50 53 54 55 56
55 55 55 55 54 54 54 53 54 53 53 53 53 53 52 52 52 51 51 51 50 48 47 47 47 49 50 52 53 54 56 55 55
54 54 54 54 54 54 54 54 54 54 54 53 53 53 53 53 53 53 53 52 52 51 49 48 48 47 49 50 51 53 55 57 57
57 56 56 56 56 56 55 55 55 55 55 53 53 52 53 53 53 53 53 53 53 53 52 51 48 47 47 47 49 52 52 54 55
45 46 48 50 54 55 56 57 56 55 55 55 54 51 51 53 54 52 53 53 53 53 53 52 51 50 48 48 49 50 51 52 54
42 42 43 43 45 44 47 48 52 54 53 55 56 56 55 51 50 53 53 52 52 52 52 52 52 51 51 49 49 49 50 52 54
42 41 42 42 43 43 44 43 44 45 47 48 51 52 51 52 50 47 47 50 53 54 53 52 52 52 52 51 50 51 52 53 54

GFSFLT1_sfc_30mbdewp_015.txt.gz
Dewpoint
60 59 58 57 58 58 57 57 58 59 57 58 57 58 58 56 55 54 58 59 59 59 57 57 59 59 59 58 56 54 55 54 54
59 58 58 57 58 57 57 57 56 58 58 58 57 57 57 57 55 53 56 59 61 60 56 57 57 56 55 55 55 54 54 53 53
60 59 58 58 58 58 58 58 58 57 56 57 56 58 56 58 57 54 52 58 61 58 57 57 56 56 55 54 55 54 53 53 53
60 60 60 60 60 58 60 61 61 60 59 58 57 58 59 56 58 58 53 52 58 59 59 57 57 57 56 55 54 55 54 53 52
61 61 62 61 60 60 61 61 61 61 61 60 59 59 59 57 58 58 57 55 55 59 59 59 56 57 56 56 55 54 55 54 53
60 60 60 61 62 61 60 61 61 62 61 61 60 58 54 54 55 57 58 58 56 55 58 58 58 57 57 56 56 56 54 54 54
59 59 59 61 61 62 62 61 61 62 60 59 59 57 55 53 53 54 58 59 58 55 55 57 58 58 58 57 56 56 56 54 54
60 59 59 59 58 58 58 58 59 59 59 58 58 57 56 54 53 52 56 57 57 57 54 55 56 57 58 58 58 56 56 56 55
59 59 59 58 58 58 58 57 57 58 58 58 57 57 56 54 53 52 53 54 52 52 55 54 53 55 57 59 60 59 58 58 58
59 58 58 58 58 58 57 57 57 57 57 57 57 56 55 55 54 53 52 53 54 52 50 51 52 51 53 57 60 61 61 59 58
58 58 58 57 58 57 57 57 57 57 57 56 56 55 55 55 54 53 52 52 54 55 54 52 51 52 52 53 58 60 61 61 60
58 58 57 57 57 57 57 56 56 56 56 55 55 55 55 54 54 53 52 52 52 53 55 55 55 53 53 53 54 57 59 61 61
58 57 57 57 57 56 56 55 54 54 54 54 54 54 54 54 54 53 53 52 51 51 52 54 55 56 55 54 53 55 56 56 59
57 56 56 56 56 55 55 55 55 54 54 54 54 54 54 54 53 53 53 52 52 52 51 51 53 55 55 56 55 56 56 56 57
55 55 56 56 56 56 56 55 55 55 55 54 54 55 55 55 54 54 53 53 53 52 52 52 51 51 52 53 55 56 58 58 57
53 53 52 53 54 54 55 55 54 54 55 54 53 54 54 55 55 55 54 54 54 54 53 53 52 51 51 52 53 55 56 58 59
41 42 43 43 45 44 45 48 49 50 51 53 53 50 50 51 54 54 54 54 54 54 54 54 53 52 52 51 52 53 54 55 56
39 40 40 41 42 41 43 43 44 42 42 45 48 45 45 48 47 50 51 53 54 54 54 54 54 54 53 52 52 52 52 53 55
37 38 39 39 40 40 40 40 41 40 40 41 41 44 45 40 40 37 44 45 47 50 50 52 53 53 54 54 53 52 52 53 55
34 35 37 36 37 39 39 38 39 40 40 41 41 41 42 42 42 41 40 43 42 45 47 49 50 52 53 54 54 54 53 54 56

GFSFLT1_sfc_30mbdewp_018.txt.gz
Dewpoint
60 59 58 57 58 58 57 57 57 58 59 58 58 59 59 58 55 51 51 57 56 58 59 58 57 60 60 60 59 57 55 56 55
61 59 58 57 57 58 58 58 57 56 58 58 58 58 58 55 56 53 50 54 58 60 60 58 57 57 58 57 57 56 54 55 53
61 60 59 59 59 57 59 58 59 58 58 57 56 55 58 55 55 54 53 52 57 60 60 58 57 57 56 56 55 56 54 54 54
60 60 60 60 61 60 59 61 61 61 61 60 59 59 59 56 53 53 53 53 55 58 60 59 60 58 57 57 56 55 56 55 54
60 61 61 61 61 61 60 60 61 62 62 60 61 60 59 54 52 52 53 55 56 56 57 59 59 59 58 57 57 56 55 56 55
58 58 59 60 60 60 60 60 61 62 61 60 61 61 55 51 49 49 51 55 58 57 56 57 58 58 59 59 57 57 57 56 56
58 59 59 60 61 61 61 60 61 62 56 55 59 57 54 53 51 49 51 53 56 57 57 56 57 58 59 60 59 58 57 57 56
57 57 57 57 58 57 56 56 56 55 55 55 55 55 55 54 53 52 53 53 56 54 55 57 56 56 58 58 59 60 60 58 58
55 55 56 56 56 55 56 55 55 55 55 55 55 55 55 55 54 53 54 54 56 56 54 52 55 56 55 57 58 60 61 61 60
55 55 56 56 55 56 56 56 56 56 56 56 56 56 56 56 55 55 55 55 55 57 57 56 53 52 55 55 57 59 61 61 61
58 57 57 57 56 56 56 56 56 56 56 56 56 56 56 56 56 56 56 56 56 56 58 58 57 56 54 53 56 57 59 61 62
59 58 58 57 57 57 57 57 57 56 56 56 56 55 55 55 55 56 56 55 56 56 56 58 59 58 58 57 55 57 58 58 60
58 58 57 57 57 57 57 57 57 57 56 56 56 55 55 55 55 55 55 55 54 55 56 56 57 59 59 59 59 59 58 58 58
57 57 58 58 58 57 56 55 55 55 55 55 55 54 54 55 55 55 55 54 54 54 54 55 56 55 55 58 59 59 60 60 59
56 53 50 51 51 50 49 50 50 50 50 50 51 50 51 52 52 53 53 54 55 54 54 54 54 55 55 55 56 57 58 60 60
41 41 40 40 40 40 40 40 40 40 41 39 40 42 44 48 45 50 52 49 50 51 53 52 54 54 55 55 55 55 57 58 59
37 38 37 38 38 38 38 39 39 38 38 37 38 35 36 36 40 39 38 40 41 45 49 50 52 53 54 55 55 55 55 56 57
36 36 36 36 37 36 37 36 37 35 35 35 36 34 35 37 35 35 35 35 39 38 39 43 44 45 47 51 52 54 55 55 56
30 30 31 31 31 31 30 29 31 30 31 31 32 35 35 33 33 32 35 35 37 37 38 38 39 40 42 46 50 53 54 55 55
25 24 25 25 24 25 25 25 25 28 28 28 30 33 34 33 33 34 28 29 29 30 33 35 37 39 41 42 45 50 51 52 53

GFSFLT1_sfc_30mbdewp_021.txt.gz
Dewpoint
61 59 58 57 58 58 57 57 57 57 59 59 58 59 60 59 54 54 51 50 55 57 58 59 58 58 60 61 60 59 58 56 56
62 60 58 58 58 58 58 57 58 58 57 57 57 57 59 56 53 53 54 50 52 57 59 58 58 58 57 58 58 57 57 55 55
62 61 59 59 60 59 58 59 60 60 59 59 59 58 59 54 53 53 54 54 52 56 58 60 58 58 57 57 57 56 57 56 55
60 60 60 61 61 61 60 60 62 62 62 61 61 61 60 57 54 52 52 53 55 55 57 59 59 59 60 58 57 57 56 56 56
60 60 61 61 61 61 61 60 60 61 62 63 62 62 61 57 54 53 52 54 54 55 56 57 58 58 58 60 59 58 57 56 57
57 57 57 59 60 60 60 60 60 61 62 61 60 62 57 55 52 49 49 52 54 56 57 57 57 58 59 60 61 60 58 57 57
56 58 59 60 60 61 61 60 61 61 57 56 60 59 56 54 53 53 52 52 52 54 56 57 57 57 58 60 61 60 60 58 58
54 55 56 58 58 58 57 58 59 56 54 54 54 54 54 54 54 54 54 54 53 55 56 56 55 57 57 57 58 61 61 62 61
54 53 54 55 55 55 56 55 55 55 55 55 55 54 54 55 55 55 55 56 55 56 58 58 57 55 56 57 57 59 61 62 62
54 54 55 55 55 55 55 56 56 56 56 56 56 56 56 56 56 57 57 57 58 57 57 59 60 58 56 55 58 59 60 61 62
57 57 57 57 57 56 56 56 57 57 56 56 56 55 55 55 55 56 56 57 58 59 58 59 60 61 60 59 58 58 60 60 60
59 58 58 58 57 57 57 57 57 57 57 56 56 56 54 54 54 54 55 56 57 59 59 59 59 59 61 61 61 61 59 59 59
58 58 57 57 57 58 57 57 55 53 53 52 53 54 53 52 52 53 54 55 55 55 59 59 59 58 58 59 60 61 61 61 60
58 57 55 52 53 51 50 47 47 47 47 47 47 48 48 49 48 49 51 52 54 55 55 56 58 58 57 57 57 58 60 61 61
46 44 41 41 42 40 40 39 40 40 39 38 39 39 41 43 43 48 48 50 49 46 49 52 54 56 57 58 57 57 57 58 60
39 39 38 38 38 37 38 38 39 39 39 38 38 38 38 38 38 39 37 37 38 39 40 42 47 49 53 54 57 57 57 57 57
35 36 36 36 36 36 35 35 35 35 34 33 33 32 33 35 35 32 34 34 36 38 39 39 41 42 42 43 48 51 53 53 54
30 31 30 30 30 30 30 29 30 29 30 30 30 28 27 32 32 32 32 32 31 35 34 32 33 36 38 39 40 42 50 50 51
24 24 25 25 24 24 25 23 24 25 27 28 25 30 31 30 29 28 29 28 25 24 28 27 29 32 36 40 42 48 47 49 50
22 19 19 19 20 21 21 21 22 24 27 27 26 27 29 31 26 23 23 23 22 23 25 28 29 30 32 39 40 41 44 43 44

GFSFLT1_sfc_30mbdewp_024.txt.gz
Dewpoint
60 60 58 58 58 58 58 58 58 57 57 59 59 58 58 60 57 55 53 53 51 55 59 58 60 58 59 60 62 61 60 59 57
62 60 59 58 58 58 59 57 57 59 59 58 57 57 59 58 56 55 53 55 52 53 57 59 58 58 58 58 59 58 58 58 56
63 62 60 59 60 60 58 59 60 61 61 60 60 60 59 58 55 54 54 54 55 54 54 58 59 61 57 58 57 58 57 57 57
61 61 60 61 61 61 61 59 59 61 62 62 62 62 62 60 58 56 54 54 54 55 56 56 58 60 58 59 59 58 58 57 57
61 61 61 61 61 60 60 60 59 59 61 62 64 64 62 61 59 57 55 55 54 54 56 57 57 59 58 59 60 61 59 58 58
59 60 60 60 59 59 60 60 60 61 62 61 61 62 61 59 57 55 54 56 52 52 55 56 57 57 58 58 61 61 61 60 59
58 58 58 58 60 60 61 61 61 62 60 58 58 61 59 58 57 55 54 55 53 53 54 55 57 57 57 58 59 60 61 61 61
56 57 58 58 59 59 59 60 61 60 59 57 55 58 58 56 55 55 55 57 56 55 56 57 57 58 58 58 58 59 61 62 63
54 54 55 56 56 58 57 57 56 56 56 56 56 55 55 55 56 56 56 57 59 58 58 58 59 60 60 59 58 60 60 61 62
56 56 56 57 57 56 56 57 57 57 57 57 57 56 56 56 56 57 57 58 59 59 59 59 59 60 60 62 62 60 60 61 61
59 58 58 59 58 58 57 57 57 58 57 57 57 56 55 55 55 54 55 55 58 59 59 59 60 60 60 60 61 62 62 61 61
59 59 59 59 58 58 58 57 57 57 56 54 54 54 54 54 53 53 53 53 55 56 59 60 59 59 59 59 58 60 61 62 62
58 58 53 54 57 55 52 48 45 47 47 47 49 51 52 52 51 49 50 51 52 54 56 58 58 58 57 57 57 57 59 60 61
50 45 41 42 44 42 41 41 42 41 41 40 39 40 40 41 43 44 44 42 40 38 40 44 52 56 57 57 56 56 58 59 60
41 41 40 40 40 40 39 38 40 39 39 37 37 38 38 40 39 39 34 32 36 38 38 39 41 44 48 47 48 51 53 56 56
37 38 37 37 37 37 35 35 34 33 34 33 33 32 34 32 32 28 29 33 32 35 33 37 36 33 37 41 41 43 43 46 48
32 32 32 31 31 32 30 29 30 31 30 31 29 28 28 31 28 32 33 30 31 28 32 26 25 28 31 33 38 38 38 43 47
26 26 26 27 27 26 25 26 25 25 28 30 28 28 27 27 30 29 31 26 24 27 23 20 24 25 25 32 36 39 39 43 45
22 23 23 23 24 23 23 23 23 25 27 31 28 28 28 26 27 30 26 24 22 22 23 22 24 29 29 30 34 37 44 39 41
20 20 20 20 21 21 20 20 22 26 27 31 28 27 28 27 29 25 22 22 22 24 26 28 27 29 26 29 26 35 31 31 33

GFSFLT1_sfc_30mbdewp_027.txt.gz
Dewpoint
60 60 58 59 59 58 58 58 58 57 56 57 59 59 59 60 58 56 55 55 54 52 58 59 59 60 59 60 62 62 62 61 59
62 61 59 59 59 59 59 58 57 59 60 59 59 58 58 59 57 55 54 54 56 55 54 58 60 59 59 58 58 60 60 59 58
63 61 60 60 60 60 60 58 60 61 62 62 61 61 61 59 57 56 55 55 57 56 55 55 58 59 60 60 59 58 58 58 58
61 63 61 61 61 61 61 61 59 60 61 62 63 64 63 62 60 58 57 56 56 56 56 57 57 57 59 60 59 59 58 59 58
61 62 62 61 61 61 59 60 60 60 60 61 63 64 64 63 61 59 58 59 58 57 55 56 57 57 58 59 59 59 61 61 60
60 61 60 62 61 60 60 60 61 62 62 62 62 61 61 61 60 58 58 59 59 57 56 56 56 57 58 58 58 59 60 60 62
58 59 60 60 60 60 61 61 62 62 61 60 59 58 59 60 59 58 58 59 57 56 58 58 57 57 58 59 59 58 58 59 61
57 58 58 58 58 59 59 59 60 60 60 59 58 57 58 59 58 58 58 59 58 58 59 60 60 59 59 60 60 60 60 59 61
54 55 56 57 58 57 58 58 57 57 57 57 56 56 56 56 56 56 57 58 59 58 59 61 61 61 60 60 61 63 62 61 62
57 57 57 57 57 57 57 57 58 58 58 57 57 57 56 56 56 56 55 56 58 58 57 57 60 60 61 61 61 62 62 62 62
59 59 59 59 59 58 58 57 57 56 55 54 53 53 53 52 52 52 53 53 53 55 55 56 57 56 56 58 60 60 60 61 61
59 58 55 57 56 51 48 43 44 44 44 42 43 46 46 46 47 49 50 50 51 50 46 46 52 55 57 58 58 57 58 59 60
52 43 42 44 44 42 41 41 40 40 40 39 39 39 39 40 41 43 42 37 35 39 42 42 43 46 49 51 53 54 56 58 58
41 40 40 40 40 39 38 38 38 36 36 34 33 37 33 38 40 36 28 29 33 36 37 39 43 41 40 41 43 45 46 49 49
38 37 35 36 37 34 33 32 31 33 32 29 34 29 33 37 32 28 24 32 31 34 31 35 32 32 28 32 35 35 37 37 39
32 32 31 30 32 29 28 30 28 28 29 32 26 28 29 29 26 19 32 28 31 27 24 25 22 20 29 29 30 37 38 38 39
27 27 27 26 27 25 24 25 24 28 29 30 29 25 27 28 21 28 26 29 25 24 22 20 20 23 23 27 33 33 32 33 39
24 23 24 24 25 22 22 23 23 25 28 30 27 23 24 23 28 22 28 26 24 23 21 24 23 24 28 30 30 31 32 37 38
21 20 21 22 22 20 21 22 23 24 24 27 31 28 27 25 23 28 20 25 24 23 23 24 25 28 27 25 28 26 30 32 34
19 18 18 18 20 19 18 20 18 21 26 24 26 26 25 26 22 18 18 23 21 22 23 24 26 27 22 21 22 26 28 28 30

GFSFLT1_sfc_30mbdewp_030.txt.gz
Dewpoint
57 60 59 60 59 58 58 57 57 57 57 56 57 58 59 60 59 57 55 56 56 57 54 59 59 60 59 60 62 63 63 63 61
61 61 60 60 59 59 59 58 57 58 60 60 60 60 60 59 58 56 55 54 57 58 57 55 59 60 59 59 59 59 61 62 61
63 61 61 60 60 60 60 59 59 60 61 62 61 62 62 61 59 58 57 57 57 58 58 57 56 57 58 58 58 60 59 58 59
64 63 62 61 61 61 61 61 60 60 60 61 62 64 64 64 62 60 59 59 59 58 57 57 57 58 58 58 58 59 57 60 59
62 64 63 61 61 62 61 59 60 60 60 61 62 63 63 62 62 61 60 60 61 60 59 57 57 58 59 58 58 58 60 59 60
61 62 61 62 62 62 60 60 61 62 62 62 62 62 61 60 60 60 59 61 61 61 60 60 56 56 58 59 59 59 58 58 59
57 59 60 61 62 61 61 61 62 63 62 60 60 59 58 58 59 59 59 61 62 61 61 60 60 59 59 59 60 60 60 59 59
59 58 59 60 59 59 59 59 59 59 59 59 59 58 57 58 59 58 59 60 60 60 60 61 60 60 61 60 60 61 62 62 61
56 56 57 57 57 57 57 57 57 57 57 58 57 57 57 56 56 56 56 58 56 55 55 56 59 60 60 60 61 62 61 61 62
57 57 57 57 57 57 57 57 56 54 52 50 48 49 52 51 52 52 51 54 54 52 54 55 55 58 59 60 59 61 61 61 61
59 58 58 57 56 55 47 45 45 44 43 41 42 43 43 43 44 46 47 47 42 42 44 46 48 49 53 55 57 58 58 58 58
50 44 44 45 43 42 41 41 40 38 38 36 38 37 37 37 39 43 36 33 36 41 41 42 45 48 48 49 49 49 51 51 52
42 41 41 42 40 39 38 36 34 33 33 30 30 33 33 33 40 34 24 30 34 36 36 36 36 36 38 40 42 44 44 44 44
38 37 37 38 34 32 33 31 30 31 28 27 28 31 29 36 32 23 23 32 31 31 29 34 28 28 31 34 35 36 37 40 42
34 31 31 33 29 27 27 27 27 30 28 29 29 25 30 35 24 19 29 30 30 26 26 25 21 25 29 28 33 37 39 38 38
29 28 27 29 25 24 25 25 25 26 29 30 25 26 31 27 19 24 24 27 26 24 23 20 22 23 25 29 34 35 35 35 34
24 25 25 25 23 21 22 24 22 25 29 25 30 23 25 25 15 25 23 25 21 26 24 22 23 24 25 31 30 29 31 31 32
21 22 22 22 22 20 21 23 21 20 26 28 24 18 20 21 25 19 23 17 24 22 25 22 23 23 28 28 27 26 25 27 34
19 20 20 20 20 18 19 22 19 21 22 25 26 28 26 18 19 24 19 21 17 24 22 22 24 24 27 26 24 23 25 26 30
17 16 16 16 18 17 17 18 16 20 22 22 25 26 22 22 24 17 15 17 19 20 20 24 21 25 26 23 24 22 23 28 31

GFSFLT1_sfc_30mbdewp_033.txt.gz
Dewpoint
59 60 60 60 59 58 57 57 57 56 57 56 57 57 57 59 58 57 56 56 56 57 58 56 59 59 60 59 61 63 64 63 63
58 61 61 61 60 59 58 58 58 58 60 60 61 61 61 60 59 57 56 55 57 57 59 58 56 60 60 60 59 59 59 60 62
62 62 61 61 60 59 59 59 59 59 60 60 60 61 63 62 61 60 59 58 60 59 57 58 59 57 57 57 58 59 60 60 59
64 63 62 61 61 61 61 61 61 60 60 60 61 63 64 64 63 62 61 61 61 61 60 59 58 58 59 58 58 57 57 59 59
64 65 64 62 61 62 62 60 59 60 61 61 62 62 62 62 61 61 60 62 62 62 62 61 60 59 59 59 60 60 59 58 60
61 62 63 63 62 62 62 61 61 62 62 62 62 62 61 60 59 60 60 61 62 62 63 62 61 60 59 60 60 60 61 60 60
59 59 60 62 62 63 62 62 63 63 62 60 60 59 58 58 58 59 60 61 61 62 62 62 61 60 61 61 60 60 61 60 61
59 58 58 59 60 59 59 58 57 57 58 58 58 58 57 57 57 57 58 56 57 57 57 57 58 58 60 60 62 61 61 62 62
57 57 57 57 57 57 57 57 57 57 56 53 50 49 51 50 51 50 51 54 53 51 52 54 54 56 57 59 60 60 60 61 62
55 56 57 58 58 57 55 51 47 44 44 41 42 43 42 41 42 46 49 44 44 46 47 49 50 52 53 55 56 56 57 58 58
58 55 52 46 46 43 43 42 40 39 37 34 35 35 36 36 37 41 31 40 38 42 45 45 48 47 47 48 48 49 50 51 52
45 44 43 42 41 40 37 36 34 32 30 26 27 29 34 30 40 28 25 33 37 36 38 40 39 39 40 41 43 44 44 43 44
42 41 40 37 34 34 32 29 28 27 25 24 25 30 27 33 30 21 27 31 31 30 35 33 30 32 34 37 37 39 40 42 44
36 36 35 31 28 27 28 27 28 26 24 24 28 25 26 36 21 21 27 31 27 26 27 27 25 27 30 32 36 38 41 41 41
30 30 29 27 24 23 22 23 25 30 25 25 22 25 29 32 19 24 24 29 25 25 24 22 22 24 27 29 34 37 36 35 37
26 26 25 24 21 21 22 22 21 24 27 23 24 26 30 28 20 22 22 21 20 26 21 24 22 24 26 25 32 33 32 34 34
23 23 23 21 20 20 21 20 18 21 27 27 29 19 18 24 17 21 24 19 21 23 18 25 21 22 25 26 29 28 29 30 31
21 21 21 20 20 18 21 19 17 17 23 27 16 10 15 23 22 17 24 17 21 17 22 24 21 24 22 25 28 26 26 28 31
19 19 19 19 19 17 19 19 17 21 19 22 22 25 26 16 14 22 18 19 14 19 22 21 22 24 22 27 25 24 25 28 30
16 16 15 16 17 16 16 15 15 19 19 20 22 23 21 23 22 14 15 12 12 17 19 22 21 22 23 25 25 23 25 27 30

GFSFLT1_sfc_30mbdewp_036.txt.gz
Dewpoint
59 60 60 60 58 58 57 57 56 56 57 57 58 59 58 59 58 57 56 57 57 56 58 58 57 59 60 60 60 60 63 64 63
60 61 61 61 59 59 58 57 58 58 60 60 61 61 61 61 60 59 58 57 59 59 57 59 58 58 59 61 59 58 58 59 59
62 62 62 61 60 59 59 59 59 59 60 61 61 62 63 63 62 61 60 60 62 62 60 58 59 59 58 57 57 58 60 60 60
63 63 62 62 61 61 62 61 60 61 60 60 61 62 63 63 62 62 61 61 62 63 62 62 61 60 59 60 59 59 59 58 58
65 64 64 63 62 62 62 62 60 60 61 62 63 63 63 61 60 59 59 62 63 63 63 63 63 62 61 61 60 61 61 60 60
61 62 64 63 63 62 63 62 62 63 63 62 62 61 60 58 58 58 60 62 62 62 63 63 63 63 63 62 61 61 60 61 62
59 59 59 62 63 63 63 62 62 60 59 59 59 58 57 57 57 58 58 56 58 59 59 59 59 59 60 61 61 62 61 61 62
59 58 58 58 59 59 58 58 57 57 57 57 55 52 53 50 50 50 52 53 54 53 53 54 55 56 56 57 60 61 61 61 62
58 56 56 57 57 57 57 57 55 47 43 42 43 44 43 42 43 45 51 46 47 48 50 50 51 53 55 56 57 56 58 58 58
55 56 58 58 57 54 46 44 42 39 37 34 35 35 35 34 38 38 42 42 44 46 48 49 51 49 49 50 50 51 52 52 52
59 53 45 43 43 42 41 38 35 31 29 24 26 29 32 30 40 25 34 41 41 42 45 44 44 43 43 45 46 45 46 46 47
47 44 41 40 39 36 31 30 30 24 24 21 24 29 27 35 23 25 30 32 33 39 38 38 37 38 38 40 41 41 43 45 46
43 40 36 31 29 29 28 25 27 23 22 18 24 26 25 36 18 26 29 31 26 29 33 31 30 32 34 36 37 39 41 42 43
38 33 29 26 24 23 24 23 28 23 20 17 23 22 26 31 19 23 28 25 24 26 24 27 27 27 30 33 34 38 40 40 38
30 26 24 23 21 20 20 20 23 26 24 21 17 27 29 31 19 24 25 21 22 26 20 23 24 24 25 30 31 33 37 37 37
25 24 21 21 20 20 18 21 17 22 27 20 21 25 26 28 25 20 23 20 20 24 17 20 24 23 24 27 26 30 33 34 35
22 21 20 20 18 19 18 15 15 20 26 21 24 12 13 20 16 21 24 19 21 18 13 19 23 21 23 26 24 28 30 31 33
20 20 19 19 19 19 18 17 17 15 19 26 15 5 8 22 19 18 24 17 18 14 16 20 21 21 24 24 24 29 26 29 31
19 18 18 18 17 16 18 17 18 18 16 19 20 22 24 12 12 19 16 18 13 14 17 19 21 22 23 24 25 25 25 28 31
16 16 15 15 16 15 15 14 15 18 17 17 19 20 19 22 21 12 14 13 13 14 16 20 18 19 22 23 26 24 25 28 29

GFSFLT1_sfc_30mbdewp_039.txt.gz
Dewpoint
60 60 60 60 58 57 57 56 56 57 58 59 59 60 60 60 58 58 58 58 58 58 57 59 58 58 59 60 60 60 60 63 64
61 62 61 61 59 59 58 57 58 58 60 60 61 61 61 61 61 61 61 60 62 61 60 58 59 59 59 59 61 56 58 59 61
62 62 62 62 60 59 60 60 60 60 60 60 61 62 63 61 60 61 61 61 62 63 62 62 60 60 60 58 57 58 58 60 61
65 63 62 62 61 61 62 61 61 60 61 61 62 63 63 60 60 60 60 60 63 63 63 63 63 62 61 60 61 60 60 60 60
65 63 63 63 62 62 62 62 62 61 62 63 63 63 62 60 59 59 59 62 63 63 63 63 63 63 63 63 62 61 61 61 61
61 62 64 64 63 63 63 63 63 64 62 62 61 60 59 58 58 58 60 59 60 61 60 60 60 60 61 61 62 62 62 61 62
59 59 59 60 62 62 62 61 60 58 58 58 58 57 56 55 54 52 54 55 55 56 55 56 57 57 58 58 59 61 62 62 63
59 59 59 59 59 59 58 58 58 57 52 47 46 46 44 43 43 46 51 50 50 51 52 52 53 55 56 58 57 57 58 59 60
59 57 57 57 58 58 58 54 45 42 38 36 39 38 37 35 37 42 47 47 48 48 50 51 54 52 52 52 52 53 54 54 54
56 57 58 57 55 48 45 42 38 33 29 26 27 29 31 29 39 29 44 45 46 47 49 48 48 47 47 48 48 48 48 49 50
59 49 46 44 42 40 39 34 31 26 23 21 24 29 25 34 27 31 37 40 43 44 44 43 42 42 42 43 44 44 45 46 48
49 44 41 40 37 31 29 30 27 23 21 19 24 26 24 35 24 30 30 29 37 39 37 36 36 37 38 40 40 41 42 44 45
44 39 34 31 29 29 25 26 27 22 21 19 22 23 27 23 26 28 28 26 25 28 30 28 28 30 32 35 37 38 39 41 43
38 33 28 25 25 25 23 25 27 21 20 19 20 25 30 21 24 25 26 24 26 24 22 24 24 26 28 31 35 35 35 39 39
31 28 24 24 23 21 23 20 23 21 22 19 18 28 32 25 23 22 24 22 22 22 19 16 16 22 26 29 30 31 34 36 37
26 24 22 23 20 18 17 21 19 20 24 19 19 23 24 30 29 18 23 22 21 19 15 11 13 16 22 23 26 29 30 34 34
23 22 21 21 20 18 17 18 18 19 25 16 20 13 13 21 19 24 23 20 19 15 11 12 14 16 17 21 25 26 29 32 33
22 21 20 21 21 19 19 20 20 16 22 20 14 9 8 17 17 17 21 16 15 13 13 13 13 16 17 20 22 24 27 29 32
20 20 19 19 20 18 17 18 18 19 15 18 18 20 18 10 8 16 16 16 12 14 14 13 15 16 17 19 22 24 26 29 31
18 18 19 18 18 17 17 17 17 17 17 16 17 17 16 20 18 8 10 12 13 14 14 14 15 16 18 19 20 23 25 28 30

GFSFLT1_sfc_30mbdewp_042.txt.gz
Dewpoint
60 60 60 59 58 57 57 56 57 58 59 60 60 60 61 61 58 58 58 58 61 61 59 58 59 59 59 59 60 61 60 60 63
62 62 61 61 59 59 58 58 59 59 60 62 61 62 62 60 58 58 59 59 62 62 62 61 59 60 60 60 59 62 57 59 59
62 63 62 62 60 60 60 61 61 61 61 61 61 62 62 58 58 59 59 61 62 63 62 62 63 62 61 61 59 58 58 58 60
63 64 63 62 61 61 62 62 61 60 61 62 63 63 63 60 59 59 58 61 63 64 63 63 64 64 63 62 61 62 62 61 61
65 64 63 63 62 62 63 63 62 62 63 63 63 62 60 58 58 58 59 62 61 62 62 61 61 62 62 63 63 63 62 62 62
62 63 64 64 63 63 63 63 64 63 62 60 60 59 57 57 57 57 56 56 57 58 57 57 58 59 60 59 61 62 63 63 63
57 59 59 61 62 61 61 60 59 58 57 58 58 54 54 53 53 51 53 54 54 53 53 54 55 56 58 60 58 59 60 61 61
54 56 56 57 58 58 58 58 58 54 49 48 47 47 46 46 45 48 49 49 50 51 52 52 56 54 54 54 55 55 56 56 56
57 56 57 57 57 58 58 52 46 43 41 39 40 39 39 36 36 42 47 46 47 50 52 52 51 49 49 51 51 50 50 52 52
57 56 57 57 56 52 49 43 39 39 36 31 29 30 30 27 32 30 45 45 47 49 48 47 46 46 46 47 46 46 47 48 50
57 55 50 46 44 42 42 40 37 33 27 24 23 26 24 28 28 30 38 44 44 44 43 42 41 41 41 43 43 44 44 45 46
55 50 47 44 41 37 35 33 29 26 24 23 21 23 21 29 26 29 28 32 38 37 36 34 33 34 35 37 38 40 41 42 43
49 43 39 37 36 33 28 28 27 25 23 21 21 21 23 25 26 28 26 26 24 28 30 30 29 30 31 33 36 38 38 38 39
44 39 33 31 30 29 24 27 24 22 21 19 18 24 27 25 22 25 23 25 25 23 20 21 19 23 29 32 34 35 35 37 38
35 33 29 27 27 25 24 23 22 20 20 18 17 25 29 24 24 24 20 22 23 22 19 16 13 16 24 27 29 32 34 35 36
30 30 27 26 24 20 19 20 21 20 21 18 16 21 21 29 28 24 20 22 19 18 14 12 12 13 17 20 26 30 31 33 35
27 26 25 23 21 20 19 19 19 19 22 16 19 15 15 20 25 17 20 16 18 14 13 14 13 13 15 17 24 25 28 31 33
26 25 24 22 21 21 20 21 20 18 20 18 15 12 11 13 13 17 14 16 13 13 15 14 13 14 15 17 19 22 27 29 32
23 22 22 21 20 20 18 18 17 18 16 17 15 18 14 8 8 11 13 14 12 14 15 14 14 15 15 18 20 22 25 28 31
21 20 20 19 18 18 18 18 17 15 16 15 14 14 14 15 14 11 10 12 13 14 14 15 15 14 15 16 18 21 25 28 30

GFSFLT1_sfc_30mbdewp_045.txt.gz
Dewpoint
59 61 60 58 58 57 56 57 58 59 61 61 61 61 61 61 57 56 58 58 62 62 61 60 58 60 60 59 59 61 61 61 61
62 62 61 59 59 59 59 59 59 60 60 61 61 63 62 59 57 57 58 61 61 63 62 62 62 62 61 61 62 60 62 60 59
63 63 62 60 60 60 61 61 61 61 61 61 62 63 62 58 56 58 58 62 62 63 63 63 64 64 64 63 61 61 59 60 59
63 63 63 61 61 61 62 62 61 60 61 62 63 63 62 60 57 58 58 62 63 63 63 62 62 62 62 63 64 63 62 62 62
65 64 63 62 62 62 63 63 63 63 63 63 62 61 60 59 56 57 58 58 59 60 59 59 59 60 61 60 62 63 63 63 64
63 63 64 64 63 63 63 63 63 62 62 60 59 59 56 55 56 56 55 56 57 56 55 56 57 58 59 61 60 60 61 62 62
60 60 62 62 62 62 61 60 59 58 57 59 57 53 50 50 50 51 51 52 53 53 53 54 57 57 56 57 57 57 58 58 57
55 57 56 58 58 58 59 59 57 52 50 50 49 48 47 47 46 48 49 48 48 50 52 56 54 52 52 53 53 52 52 53 53
54 55 56 57 56 56 57 52 49 47 44 43 40 40 40 37 35 46 48 48 50 51 52 50 50 49 49 49 49 48 49 50 51
55 55 55 55 56 54 51 48 45 44 41 38 33 31 31 28 32 40 46 47 49 49 48 46 46 45 45 45 45 46 46 47 48
56 56 55 52 50 48 47 45 42 39 34 29 26 26 27 25 30 30 42 46 45 44 43 40 38 38 38 38 39 41 43 44 44
58 55 53 50 47 44 42 38 35 30 29 27 24 24 23 24 26 29 31 40 39 37 36 35 34 35 35 36 37 39 40 41 41
55 53 48 45 43 40 36 32 31 29 26 24 24 23 24 26 25 29 28 29 28 35 29 28 28 28 32 36 37 38 39 38 39
52 48 42 41 38 35 29 30 26 25 24 22 18 23 27 27 23 26 25 27 27 27 24 22 21 20 24 32 34 35 37 38 38
47 42 38 36 33 30 29 27 25 23 22 20 19 25 29 26 26 25 23 23 24 23 21 20 17 17 20 25 28 33 35 36 36
43 38 35 32 30 27 25 24 24 24 23 21 21 24 24 29 28 29 22 22 22 20 17 16 17 16 18 20 24 29 31 33 36
37 34 32 28 25 23 23 24 23 23 22 19 23 20 21 22 27 24 21 19 18 17 16 17 17 17 18 19 22 24 27 32 34
34 32 29 27 27 26 25 25 24 22 21 20 20 17 17 16 15 19 18 18 17 17 17 18 17 17 17 19 20 22 26 29 33
31 29 27 26 25 24 22 21 19 20 19 20 17 21 18 12 12 14 15 15 14 16 17 17 17 17 18 18 19 21 24 28 31
26 26 26 25 24 21 22 20 18 17 18 18 18 16 16 16 15 16 14 15 16 17 16 16 17 17 18 19 18 19 24 27 30

GFSFLT1_sfc_30mbdewp_051.txt.gz
Dewpoint
60 58 58 58 59 60 60 60 61 61 61 61 62 62 62 61 59 60 63 61 62 62 63 61 63 63 62 61 61 61 60 62 62
61 59 59 58 58 59 60 60 60 61 61 62 63 62 60 58 59 61 62 62 63 63 62 64 64 64 64 64 63 62 62 60 62
63 60 60 60 60 61 61 61 61 61 61 62 62 61 60 60 60 61 62 63 63 63 63 62 62 63 63 63 64 64 64 63 63
64 62 60 61 61 62 62 61 61 61 62 62 62 61 61 61 60 58 60 61 61 61 60 60 60 60 63 63 63 64 64 64 64
65 64 62 61 62 63 63 62 62 62 62 62 61 60 60 60 57 57 59 59 59 58 58 58 61 62 61 60 60 60 60 60 60
65 64 63 63 63 63 63 63 63 63 62 61 60 59 58 57 53 54 56 55 55 56 56 59 58 58 58 57 56 56 56 56 56
64 64 63 64 63 63 63 62 61 60 60 60 60 53 48 51 51 52 51 51 52 54 58 56 54 55 54 54 53 53 53 53 54
63 63 63 63 62 62 63 61 59 51 58 56 41 39 39 47 48 51 49 50 51 57 55 53 52 52 51 51 50 50 50 51 51
61 60 61 60 61 59 59 58 49 47 43 38 35 33 31 39 44 47 48 47 52 54 52 50 48 47 45 45 45 45 45 47 46
57 57 57 58 58 58 54 48 46 40 34 31 28 29 29 38 44 51 53 53 52 50 47 44 43 43 42 42 42 42 43 44 45
53 56 57 55 54 52 49 47 41 33 30 29 26 25 25 31 43 48 50 49 47 45 43 40 39 38 38 40 41 41 42 43 43
56 55 54 51 49 46 39 36 32 30 28 26 25 24 23 26 36 44 45 44 42 37 35 33 33 33 34 37 40 40 41 42 43
56 54 52 50 47 41 37 33 30 28 27 25 24 25 27 26 30 39 38 37 36 35 30 28 28 27 30 33 36 37 40 41 41
55 52 48 45 39 35 31 28 28 25 24 22 21 27 29 26 28 29 28 30 31 29 29 28 26 25 27 31 33 34 36 38 39
52 47 44 39 34 33 29 25 26 25 22 21 24 27 30 27 26 26 26 27 25 24 22 19 20 24 24 26 28 31 35 35 37
49 46 40 35 32 30 28 27 25 21 23 23 22 27 28 28 27 28 26 25 24 21 18 18 18 19 24 23 24 28 30 33 34
46 42 37 34 31 27 26 25 25 24 22 17 25 20 22 25 28 30 27 22 21 19 17 17 17 18 18 21 22 24 26 30 33
43 39 35 29 28 26 26 26 26 23 22 21 20 17 16 17 21 25 24 18 20 17 19 19 18 18 18 21 22 25 24 27 30
42 39 33 32 30 27 26 26 25 25 20 21 21 21 18 8 5 16 20 18 17 18 18 19 18 17 19 21 26 25 22 26 29
41 37 34 33 32 27 23 21 22 23 22 22 20 18 19 18 15 12 16 18 17 18 19 18 18 19 19 20 22 25 23 25 28

GFSFLT1_sfc_30mbdewp_054.txt.gz
Dewpoint
58 58 58 62 63 63 62 61 61 61 61 61 60 61 61 59 58 59 62 61 63 62 59 60 64 64 63 62 61 62 62 61 63
59 59 58 59 61 61 61 62 62 61 62 62 62 61 60 59 59 61 61 62 64 63 64 64 63 64 64 65 65 62 62 62 61
59 60 58 59 60 61 61 61 61 61 62 62 61 60 61 60 61 62 62 62 62 62 62 62 62 62 63 64 64 65 65 64 65
61 60 60 61 61 61 61 61 61 61 62 62 61 61 61 60 60 59 60 61 61 60 60 60 61 63 62 61 61 62 61 61 62
64 62 62 61 62 62 62 61 61 62 62 62 61 60 59 59 57 58 59 59 58 59 58 61 61 61 59 58 58 57 58 58 59
65 63 63 63 63 63 63 63 63 63 62 62 61 56 56 55 53 55 57 56 56 57 59 59 57 57 56 55 55 55 55 56 57
64 63 63 64 64 64 63 63 63 62 60 60 56 47 52 51 51 52 52 50 53 59 57 55 55 55 54 53 52 52 52 53 53
64 63 63 64 63 63 64 62 60 54 58 50 40 41 48 47 49 51 51 51 54 56 54 53 52 51 50 48 48 48 49 50 49
62 63 62 62 61 60 60 59 52 46 46 37 34 32 39 43 44 47 47 47 57 53 51 48 47 45 45 44 44 45 45 46 46
62 61 61 60 60 59 58 55 46 38 32 30 28 30 31 42 46 53 55 55 53 51 47 45 44 43 42 43 43 44 44 45 44
60 59 58 58 58 57 55 48 41 32 29 26 25 26 29 41 47 51 52 51 49 46 43 40 38 38 38 41 43 43 43 44 45
58 57 56 56 54 52 46 37 32 30 27 26 24 23 24 32 44 47 46 46 43 38 36 34 34 33 35 37 39 40 42 43 43
55 55 55 51 49 43 37 33 30 28 26 24 24 25 27 27 42 42 40 37 38 35 31 30 29 31 33 35 37 38 39 40 41
55 55 53 49 44 39 35 31 29 26 24 23 21 27 29 27 34 37 35 34 33 29 30 29 27 26 28 31 33 35 36 37 39
55 53 49 44 39 34 30 28 26 25 22 21 25 28 31 27 28 29 27 30 27 26 22 19 21 25 24 26 28 31 34 35 37
54 50 44 39 36 33 28 26 23 20 23 22 24 28 29 27 27 28 26 26 24 21 19 18 18 19 25 24 25 26 30 32 33
52 47 41 36 34 30 27 26 25 22 22 18 24 21 22 25 27 30 28 25 23 19 18 18 18 18 19 22 24 23 25 28 32
51 45 40 35 32 30 27 27 25 22 21 22 22 19 16 20 19 25 23 20 20 18 19 18 18 18 18 22 23 26 24 27 30
49 44 41 37 34 29 28 28 29 25 20 21 21 21 19 6 5 16 20 19 17 17 19 19 18 19 20 23 25 28 27 26 29
46 43 39 37 35 31 29 29 28 25 23 22 20 18 19 18 12 7 14 19 18 18 19 18 19 19 19 21 26 27 27 28 30

GFSFLT1_sfc_30mbdewp_057.txt.gz
Dewpoint
59 59 62 63 65 64 64 63 62 61 61 59 60 62 61 59 59 57 61 62 62 60 61 65 65 64 64 64 61 62 63 62 62
59 59 61 63 63 63 63 63 62 62 62 62 61 61 60 59 60 61 61 63 64 63 63 63 63 63 64 65 65 64 63 63 62
59 59 59 61 62 62 62 62 62 62 62 62 61 62 60 60 61 61 62 62 62 62 62 62 62 64 63 63 63 62 63 64 64
60 59 59 60 61 62 61 61 61 61 62 62 61 61 61 60 59 60 61 62 60 61 60 61 63 61 60 60 58 58 59 60 61
61 62 62 61 61 62 62 61 61 62 62 62 61 60 59 59 58 59 60 59 59 58 61 61 60 59 58 57 57 57 57 58 58
63 62 62 63 62 62 62 62 62 63 62 61 59 55 58 55 54 56 57 57 57 59 59 58 58 57 55 55 54 54 54 55 55
64 62 63 63 63 64 63 63 64 62 60 58 48 54 52 52 51 52 52 52 57 59 57 56 55 54 53 52 51 51 52 52 51
64 63 63 63 64 63 64 63 60 57 58 44 42 49 48 48 49 52 53 51 58 55 54 53 51 50 48 47 47 47 47 48 48
63 62 62 62 62 61 62 60 55 50 50 37 35 40 44 44 44 46 45 51 56 54 51 48 47 46 46 45 45 46 46 47 46
63 62 62 61 60 59 59 57 47 39 34 31 31 30 40 41 48 54 57 57 54 51 48 46 45 42 43 44 45 45 45 46 46
62 61 61 60 59 59 58 53 41 31 28 26 27 28 39 44 49 52 53 53 49 47 43 40 39 38 39 41 42 42 44 45 45
61 60 59 58 58 57 53 43 33 30 27 25 23 24 31 42 47 48 48 47 45 40 38 36 35 36 37 38 40 40 42 43 43
59 59 58 56 55 52 44 36 31 29 27 25 25 25 26 33 44 44 42 38 38 36 33 32 32 31 32 34 37 38 38 40 40
58 57 57 53 50 45 37 32 31 28 25 23 23 27 28 31 41 39 36 35 34 30 31 30 28 27 28 31 32 34 35 37 38
56 55 54 50 45 40 34 31 27 26 22 23 24 28 30 28 35 36 32 34 30 27 25 20 22 27 25 25 28 31 32 34 36
55 54 51 47 43 38 33 28 26 22 23 23 25 28 29 27 28 28 27 28 25 22 19 19 18 19 27 27 26 27 29 30 33
55 53 49 45 40 34 29 29 24 22 23 20 23 21 24 26 27 30 27 26 24 19 18 18 18 19 19 23 29 29 27 28 32
55 52 48 43 40 35 32 29 27 22 20 23 23 21 19 22 19 25 24 22 20 19 18 19 18 18 19 22 25 31 30 30 31
55 52 47 43 43 39 36 32 29 25 20 21 21 20 21 12 8 18 20 19 18 17 19 18 19 19 21 26 29 29 30 31 33
53 50 44 42 42 41 37 36 32 28 25 23 19 19 19 17 10 6 15 19 19 19 19 19 19 19 20 20 25 27 28 30 31

GFSFLT1_sfc_30mbdewp_060.txt.gz
Dewpoint
60 61 62 65 66 66 66 64 63 62 60 59 62 62 61 59 58 57 61 62 63 63 64 64 64 64 64 65 61 62 62 63 62
60 61 64 62 63 64 63 63 62 62 62 60 62 61 61 59 59 61 61 63 63 63 64 63 63 64 64 64 64 65 65 64 65
59 60 63 63 63 63 63 63 62 62 62 62 61 62 61 60 61 61 62 63 62 62 61 62 63 62 61 60 60 61 62 63 64
59 59 60 63 63 63 62 61 61 61 61 61 62 61 61 60 60 60 61 61 61 60 63 62 61 60 59 58 58 58 58 60 60
61 61 61 61 62 62 62 61 61 62 62 62 61 60 60 58 58 59 60 60 59 60 61 60 59 58 57 56 56 56 57 57 57
62 62 63 63 62 62 62 61 62 63 62 61 56 57 57 55 55 56 58 58 58 60 58 58 57 56 55 54 54 54 54 54 53
63 61 63 63 63 63 63 63 64 61 60 53 54 54 53 52 51 51 52 55 60 58 57 56 55 53 51 50 50 50 50 50 49
64 62 62 63 63 64 64 63 60 59 57 44 51 49 48 49 49 53 53 54 58 55 54 52 50 49 48 48 48 48 48 49 48
63 62 61 62 62 62 62 60 53 56 46 39 43 44 45 43 44 45 43 56 56 54 50 48 48 47 46 46 47 47 47 47 48
63 62 61 61 61 60 60 57 46 43 36 33 32 37 40 41 49 55 59 57 54 50 48 47 44 43 44 45 45 45 47 47 47
62 62 61 60 60 59 58 54 41 33 29 28 29 32 40 46 51 53 55 54 50 48 44 42 41 40 41 41 42 43 45 45 45
62 62 61 60 59 58 56 47 34 30 27 25 24 29 39 45 49 49 49 48 46 42 40 39 37 38 39 40 41 41 41 42 43
60 61 61 60 58 57 52 40 33 30 28 25 25 25 28 41 46 46 42 40 38 38 36 34 33 33 34 36 37 37 39 39 40
60 59 59 58 56 53 47 36 33 30 26 24 25 28 27 36 42 42 37 37 34 31 34 32 30 29 30 31 32 35 35 37 38
59 58 58 56 52 48 40 35 29 29 25 22 24 29 29 30 39 37 34 35 30 29 28 19 22 31 28 28 29 32 32 33 35
57 57 56 54 51 47 38 31 29 25 23 24 25 28 30 27 30 34 29 30 27 23 19 19 18 19 27 30 29 32 32 32 33
56 56 55 52 48 42 35 32 27 23 24 21 23 21 24 28 28 29 27 27 24 19 18 18 18 19 19 24 30 30 31 32 33
57 55 54 50 47 43 37 33 31 27 23 24 25 23 23 23 21 27 27 24 22 19 18 18 18 18 20 26 30 32 32 33 34
57 56 54 50 47 44 40 37 37 33 28 25 24 21 23 19 14 19 21 20 19 18 19 18 18 20 21 24 29 29 30 32 34
57 55 52 48 46 46 43 41 38 38 32 28 26 22 19 16 11 9 18 20 20 19 19 19 18 19 20 21 27 27 28 29 31

GFSFLT1_sfc_30mbdewp_063.txt.gz
Dewpoint
61 61 63 65 66 67 67 66 63 60 59 62 63 62 61 59 58 61 63 63 64 64 64 64 65 65 65 62 63 62 62 63 62
61 62 64 66 66 65 64 63 63 62 60 62 62 62 61 59 60 62 63 63 62 63 63 64 64 63 62 63 63 65 65 65 65
60 63 62 63 64 64 64 63 63 62 62 62 62 62 60 61 61 62 63 62 62 61 62 63 61 60 60 60 60 61 62 62 63
60 62 64 63 63 64 63 63 61 62 62 62 62 62 61 61 60 61 61 62 60 62 63 62 61 59 59 58 58 58 57 58 59
60 61 63 64 63 63 62 61 62 62 62 62 61 61 60 59 60 60 59 60 60 62 61 59 57 57 57 56 57 56 56 56 56
60 60 62 63 63 62 62 62 63 63 62 60 59 59 58 57 57 57 59 58 61 59 59 57 57 55 54 54 54 53 52 52 52
61 61 63 64 63 63 62 63 63 61 59 53 57 56 55 53 53 52 53 59 59 58 57 56 54 52 51 50 50 51 51 50 50
61 61 62 63 63 62 63 63 61 60 54 49 53 53 51 50 50 52 53 60 58 56 54 52 50 49 49 49 49 49 49 49 49
64 61 61 62 63 63 63 61 57 57 49 46 49 48 47 45 45 45 45 59 57 53 50 49 48 48 48 48 48 48 49 49 48
64 63 61 61 62 61 62 59 51 53 42 38 42 43 42 42 47 53 59 58 54 51 50 47 45 45 46 46 45 47 47 47 47
63 63 62 61 61 60 60 56 47 45 37 34 33 38 40 45 52 56 56 55 51 49 46 44 42 42 43 43 43 45 45 45 45
61 62 63 62 60 59 59 52 40 35 31 30 30 35 40 46 50 52 51 50 48 45 43 41 40 39 40 41 41 41 41 42 42
61 61 62 62 61 59 56 49 39 35 32 29 28 29 37 43 47 48 45 44 41 41 38 38 35 35 36 37 37 38 38 39 40
61 61 61 62 61 59 55 45 41 36 33 30 29 29 29 39 44 44 41 40 37 36 36 34 32 31 31 33 34 36 36 36 37
60 60 60 61 59 57 52 46 36 36 33 23 27 30 31 34 41 41 36 37 34 34 35 28 30 33 32 31 32 34 35 34 35
59 59 59 59 58 55 52 43 36 31 29 28 28 30 32 30 36 39 35 35 31 28 25 22 21 22 29 30 31 34 33 34 35
59 58 58 57 57 54 48 41 35 31 29 29 29 27 27 30 30 33 31 31 28 25 22 20 21 22 22 27 30 31 32 33 35
59 58 57 56 56 53 47 42 40 34 28 28 31 27 29 27 26 29 30 28 27 24 22 21 20 20 23 27 32 33 33 33 35
60 58 58 56 55 53 48 43 42 39 34 28 27 26 28 25 21 22 26 25 25 23 21 20 20 22 23 27 30 30 30 32 33
60 59 57 56 54 53 48 45 42 42 39 34 30 26 23 19 18 18 20 22 22 21 20 20 19 21 22 23 27 28 29 30 32

GFSFLT1_sfc_30mbdewp_066.txt.gz
Dewpoint
61 61 64 65 65 65 67 65 61 59 62 63 62 62 61 59 59 60 62 64 65 64 65 65 65 65 64 65 65 62 63 63 62
62 63 65 66 67 67 66 63 62 61 63 63 62 62 60 57 59 61 62 62 63 63 64 63 63 62 62 62 64 64 64 65 65
62 63 66 66 66 65 64 64 63 61 62 62 62 62 59 57 57 60 61 62 61 62 63 61 61 61 60 60 61 61 61 62 62
62 63 63 64 65 64 64 63 62 62 62 62 62 62 61 58 57 57 59 61 62 63 62 61 60 59 59 58 58 58 58 59 59
61 64 64 64 64 63 62 61 62 62 62 62 62 62 59 57 58 57 59 60 62 62 60 58 57 57 57 57 57 56 56 56 56
59 59 63 64 64 63 62 62 63 63 62 61 61 60 57 56 56 56 60 60 61 60 58 57 56 55 54 54 53 53 52 52 53
54 59 63 63 64 63 62 64 63 61 56 56 58 57 56 55 54 54 56 61 60 58 58 56 53 52 51 51 52 52 51 51 51
56 58 60 60 62 58 61 62 58 57 55 53 54 54 54 52 51 52 54 61 59 57 55 53 51 50 50 50 50 50 50 50 50
57 54 56 57 57 57 58 57 58 58 54 52 52 51 50 49 47 48 47 60 57 54 51 50 49 49 49 49 49 49 49 49 48
59 59 56 55 56 56 57 57 56 56 53 49 49 48 46 44 43 42 51 59 55 52 51 48 47 48 47 46 47 48 47 47 48
60 61 60 57 56 56 57 57 55 54 50 46 43 43 42 41 44 45 55 56 53 51 49 46 44 45 44 45 45 45 44 45 45
60 60 60 61 56 56 56 57 54 50 47 43 39 38 39 41 44 46 50 52 51 48 45 43 42 42 43 42 42 42 41 42 42
60 59 59 60 60 57 56 56 52 49 43 40 37 36 38 39 41 44 45 45 43 44 43 41 38 38 38 39 38 38 38 39 40
59 59 59 59 60 59 56 55 53 49 44 40 36 34 34 37 39 41 42 42 40 38 40 38 35 34 34 34 35 36 36 36 37
59 58 58 58 60 60 58 54 52 50 47 38 34 35 33 32 37 39 39 39 39 36 35 34 31 33 32 33 33 35 37 36 36
60 59 58 58 58 60 59 55 51 46 45 37 36 34 33 31 34 37 37 36 35 33 34 28 25 27 32 31 32 34 32 34 35
60 60 59 58 57 58 59 55 50 48 42 43 43 40 33 30 30 34 35 34 33 31 29 25 24 24 23 28 30 31 33 36 37
62 61 61 60 58 57 58 56 51 48 41 41 45 41 41 33 31 30 33 32 32 30 27 25 23 23 22 28 32 33 32 33 35
63 62 61 61 60 58 58 56 52 50 43 37 34 34 35 33 30 28 30 30 29 29 27 24 23 22 24 27 31 30 31 32 34
62 62 62 61 60 58 57 55 52 51 49 42 36 34 30 27 28 33 26 27 27 27 26 23 22 22 23 24 27 29 30 31 32

GFSFLT1_sfc_30mbdewp_069.txt.gz
Dewpoint
61 61 63 66 67 67 67 63 61 62 62 62 62 61 60 60 58 62 64 64 65 65 65 64 64 65 64 65 63 65 65 63 63
62 65 66 66 67 67 65 62 61 63 63 62 62 62 60 59 60 63 62 62 62 64 64 63 62 62 62 63 63 63 64 64 64
63 65 66 67 66 66 65 64 62 62 63 62 62 60 59 56 56 62 61 62 62 63 62 61 60 60 60 60 61 61 61 61 62
63 63 66 66 66 65 64 63 62 62 63 63 62 60 60 59 56 60 59 63 63 63 61 60 59 58 58 58 58 58 58 59 59
63 61 62 65 65 64 64 62 62 62 62 63 62 61 60 57 56 58 59 62 62 61 59 58 58 57 57 57 55 55 55 55 55
60 61 62 64 64 63 62 62 63 63 63 62 61 61 57 55 55 58 60 62 61 60 58 57 56 55 55 54 54 53 53 53 53
52 59 63 64 64 63 62 64 64 62 56 58 59 58 55 55 54 57 59 61 60 59 57 55 54 52 52 52 53 52 52 52 51
54 57 60 61 63 60 61 63 59 57 54 54 54 54 54 53 52 55 56 61 59 57 55 53 52 51 51 51 51 51 51 50 50
52 54 55 57 57 55 57 58 56 56 54 52 52 52 52 50 49 50 56 60 58 55 53 51 50 50 50 50 50 50 49 49 50
55 52 53 55 54 54 56 56 55 56 54 51 51 50 50 47 45 47 51 60 56 53 52 50 49 49 48 48 49 48 48 48 49
56 57 55 54 54 54 55 55 55 54 54 50 49 48 46 45 44 44 55 58 55 52 51 48 47 47 46 46 47 46 45 45 46
56 58 60 59 55 54 54 55 54 53 52 48 46 45 44 43 44 45 54 54 53 52 48 46 45 45 45 44 44 43 41 42 42
58 58 58 60 59 54 54 54 55 52 50 48 45 42 42 42 43 44 45 52 50 48 47 44 43 42 41 42 40 40 39 39 40
58 58 58 57 59 58 55 55 54 52 50 48 44 41 41 42 41 41 43 44 44 44 45 44 40 38 39 38 37 38 37 37 37
58 58 58 57 58 60 58 55 54 52 51 47 42 41 40 39 40 40 40 41 42 41 41 39 36 35 35 35 35 36 37 37 36
59 59 58 58 58 59 59 57 54 53 52 48 41 41 39 37 37 39 39 39 41 39 37 37 33 35 36 35 32 35 32 34 36
60 60 60 59 58 58 59 58 56 53 51 46 44 43 40 37 36 36 38 37 38 36 35 34 29 28 30 31 32 29 32 36 38
63 61 61 60 59 58 59 59 57 53 50 47 48 46 45 38 36 34 36 36 36 35 33 31 28 27 27 32 32 34 33 33 35
64 63 62 62 61 60 58 59 58 54 51 46 47 45 39 40 35 34 33 35 34 34 32 29 26 26 26 31 33 32 31 32 34
63 63 63 62 62 61 60 59 59 54 52 47 44 42 39 36 35 33 31 32 32 32 31 28 26 25 26 28 31 30 30 31 33

GFSFLT1_sfc_30mbdewp_072.txt.gz
Dewpoint
62 61 66 65 67 67 65 62 62 63 63 62 61 61 60 60 64 64 64 65 65 65 64 63 64 64 65 65 65 65 64 64 65
65 65 66 67 68 67 63 62 63 64 63 63 62 60 60 60 62 62 62 62 64 64 62 61 61 62 63 63 63 63 64 64 64
64 66 67 67 67 65 63 63 63 64 63 63 61 59 59 60 61 61 62 63 63 62 61 60 60 60 60 60 60 61 61 61 62
64 66 67 67 66 66 65 63 62 63 63 63 61 59 59 60 61 60 63 64 63 61 60 59 58 58 59 58 58 58 58 58 58
64 64 66 67 66 65 64 63 63 63 63 63 61 59 59 59 60 60 63 63 62 60 59 58 58 57 57 56 55 55 55 55 56
62 60 64 65 65 64 63 63 63 63 63 62 60 60 59 58 59 60 64 62 61 59 58 57 56 55 54 54 54 54 54 53 53
59 62 63 63 64 63 63 64 64 62 60 60 60 59 59 56 58 60 63 61 60 59 57 55 54 53 53 54 53 53 53 52 52
59 62 63 63 63 63 63 65 63 61 58 58 57 57 57 54 55 57 62 61 60 58 55 54 52 52 52 53 52 52 51 51 51
56 59 60 62 62 61 61 62 61 59 57 56 55 55 53 52 53 55 62 61 59 56 53 52 52 52 51 51 51 50 50 51 51
53 56 57 58 59 58 58 58 58 57 56 53 52 52 51 48 49 52 61 60 58 55 53 51 51 51 50 50 49 49 49 49 50
56 54 55 56 57 55 57 57 57 56 56 51 51 50 48 46 45 49 58 60 57 54 52 50 50 50 48 49 48 46 46 46 47
57 58 57 56 55 55 55 56 56 55 55 52 49 48 46 45 44 54 59 58 56 54 52 49 48 48 47 47 47 43 43 43 43
57 58 60 59 59 55 55 55 55 54 53 50 47 45 44 43 44 46 56 54 52 53 51 48 46 46 46 45 44 42 40 40 40
58 59 59 60 59 59 55 55 56 54 51 49 48 43 43 42 44 44 46 53 51 48 49 48 46 44 42 43 42 41 38 38 37
58 59 59 58 59 59 57 55 56 54 52 48 46 42 42 42 42 42 43 44 47 46 46 45 41 40 41 40 39 39 39 37 37
58 59 59 58 58 60 59 58 55 54 53 49 44 43 41 39 39 41 41 42 43 42 41 39 36 38 38 38 37 37 37 35 36
59 59 59 59 58 59 59 58 57 54 54 49 43 40 41 39 38 38 40 40 42 40 40 38 35 35 37 37 35 35 31 35 38
63 60 60 60 59 59 59 59 58 55 53 49 45 46 45 39 39 36 38 39 39 39 37 36 32 32 33 35 34 32 36 35 35
64 64 62 61 61 60 60 60 59 57 53 51 48 49 44 40 36 36 35 37 37 37 35 33 30 28 33 34 35 36 33 32 34
63 63 63 63 62 62 61 60 59 59 55 51 49 48 45 40 38 34 33 35 36 36 34 31 27 27 32 34 37 34 31 31 33

GFSFLT1_sfc_30mbdewp_075.txt.gz
Dewpoint
62 65 65 67 68 66 63 63 63 63 62 61 61 61 62 64 63 63 65 65 65 64 63 62 64 65 65 65 65 65 65 65 65
64 65 67 68 68 65 64 63 64 63 63 62 61 61 60 62 61 61 62 64 63 61 61 60 62 62 63 64 64 64 64 64 64
66 65 67 68 67 64 63 64 64 63 63 62 61 59 60 61 61 62 64 64 62 60 60 59 59 59 60 60 60 61 62 62 62
65 66 67 67 66 65 64 64 64 63 63 62 60 59 60 61 61 63 64 64 62 60 60 59 59 59 58 58 58 58 58 59 59
65 66 67 67 67 65 65 63 63 63 63 61 59 59 59 60 60 63 64 63 61 60 59 58 58 57 56 56 55 56 56 56 56
62 65 66 66 66 65 64 63 63 64 63 61 59 59 59 58 60 63 64 62 61 59 58 57 56 55 55 55 55 54 54 54 54
61 62 65 66 65 64 64 64 64 63 61 60 60 59 58 58 59 63 63 62 60 59 56 56 54 54 54 54 54 53 53 53 53
61 62 63 63 63 63 64 65 63 61 59 58 58 57 58 57 59 63 62 60 59 58 55 54 53 53 54 53 53 52 52 52 52
60 61 62 62 62 62 62 63 62 61 59 57 56 55 56 55 57 62 62 61 60 57 55 53 53 53 53 53 51 51 52 52 51
58 59 61 61 62 61 61 61 60 59 58 57 55 54 52 53 54 59 62 61 59 56 54 53 53 52 52 51 51 50 51 51 50
55 57 58 60 60 60 59 58 59 58 57 54 52 51 49 48 50 55 61 61 59 56 54 52 52 51 51 51 49 48 48 49 48
56 55 56 57 58 57 57 57 57 57 56 54 50 50 47 45 47 52 60 60 58 57 54 52 51 51 50 50 48 46 45 45 45
57 58 56 56 56 55 55 56 56 55 55 53 50 48 47 45 44 52 57 58 56 56 55 52 50 50 49 49 48 45 43 43 42
57 58 59 59 58 57 54 55 55 55 53 52 49 45 44 44 44 49 56 55 54 53 55 52 50 49 48 47 46 44 41 41 40
57 58 58 60 59 59 57 54 55 55 53 50 49 46 43 43 43 44 51 54 52 50 50 51 49 48 47 45 45 44 41 39 38
57 58 59 59 59 59 59 56 54 54 53 50 46 44 42 41 42 43 42 47 51 49 48 46 44 45 45 44 43 43 42 40 38
58 58 58 59 58 59 59 58 56 55 53 50 44 43 42 41 40 39 41 41 44 45 44 42 39 39 42 42 41 40 40 36 37
63 61 59 59 59 58 59 59 57 56 54 50 48 44 44 42 40 39 38 40 42 42 42 40 37 36 37 40 41 38 35 35 39
63 63 63 61 60 59 59 59 59 57 55 54 49 49 47 42 42 39 39 39 39 41 39 39 35 34 35 38 37 36 36 36 35
62 62 63 63 61 60 60 60 59 59 57 54 53 51 49 43 41 40 38 39 40 41 39 36 32 32 34 36 37 38 35 33 34

GFSFLT1_sfc_30mbdewp_078.txt.gz
Dewpoint
63 64 67 68 66 64 63 63 62 61 61 62 62 64 65 64 64 65 66 65 65 63 62 63 65 65 66 65 65 65 65 65 62
63 65 67 68 66 65 64 63 63 63 62 62 61 62 63 61 62 63 64 63 62 61 61 61 61 62 64 64 65 64 65 65 65
64 67 67 68 65 65 64 64 63 63 63 61 60 61 62 61 61 64 64 63 61 60 60 60 60 59 60 61 62 62 62 62 62
64 66 68 68 65 65 65 65 64 63 63 61 59 60 61 61 63 64 64 63 60 60 60 59 59 59 59 59 59 59 59 59 59
65 67 68 67 66 65 65 65 64 63 63 61 59 60 61 60 63 64 64 62 61 60 59 58 58 57 57 56 57 57 57 57 57
65 66 67 68 67 65 64 64 64 64 62 61 59 59 59 59 62 64 64 62 61 60 58 58 57 56 56 55 55 55 55 55 55
62 66 66 67 66 65 65 64 64 63 61 60 60 59 58 59 61 64 64 61 60 59 57 56 55 55 55 55 54 54 54 54 54
61 62 65 65 65 64 64 65 64 61 59 58 58 58 58 58 61 63 63 61 60 58 56 55 54 55 54 54 53 53 53 53 53
60 61 63 63 62 62 63 63 62 61 59 57 56 56 57 57 59 63 63 61 60 58 56 55 54 54 54 53 52 52 52 52 52
60 61 61 61 61 61 61 62 61 60 59 58 57 56 55 55 57 61 62 62 61 58 56 55 54 54 54 52 52 52 52 52 52
58 59 60 61 61 61 60 60 60 59 58 58 56 56 52 53 55 59 62 62 61 58 56 55 54 53 53 52 51 51 51 51 50
57 57 57 59 60 60 60 59 58 59 58 57 54 52 50 49 51 54 60 61 60 59 56 55 54 53 52 52 50 49 49 49 48
55 55 56 57 58 59 58 58 57 57 56 56 54 50 48 46 47 50 58 60 59 58 58 55 53 53 52 52 50 48 46 46 45
56 57 56 56 56 56 56 55 56 55 55 55 53 49 48 46 44 48 53 59 58 56 57 56 54 53 51 51 51 48 46 44 43
57 57 58 58 57 57 55 54 55 55 55 53 52 49 46 45 44 44 53 55 56 55 54 56 53 53 52 50 50 48 45 43 41
57 57 58 59 59 58 58 56 54 54 54 51 49 47 46 43 43 44 44 53 55 53 52 52 51 51 52 51 48 48 46 43 41
58 57 58 58 58 59 59 58 56 55 53 52 47 48 47 44 42 42 43 43 51 52 50 49 47 46 48 48 49 47 46 44 40
60 58 58 59 59 58 59 59 57 57 55 52 51 46 47 44 43 41 40 41 43 46 48 46 44 42 43 44 46 44 43 42 38
64 63 61 59 59 59 58 59 59 57 56 55 53 50 47 46 45 40 43 42 42 43 43 43 41 38 39 41 42 43 41 36 38
63 63 63 62 61 60 59 59 59 59 58 55 53 52 50 45 44 46 43 42 43 44 44 44 44 44 43 43 42 40 41 41 41

GFSFLT1_sfc_30mbdewp_081.txt.gz
Dewpoint
65 66 68 67 65 63 62 61 61 62 62 63 66 66 66 65 65 66 65 65 63 62 63 63 64 66 65 65 66 66 65 61 63
63 67 68 66 65 64 63 62 62 63 62 62 64 65 63 62 64 64 63 62 61 62 62 60 61 61 64 65 65 64 65 65 65
65 66 68 66 65 64 64 62 62 63 62 62 63 63 61 61 63 63 63 62 61 61 60 60 59 60 61 62 62 62 62 63 63
66 66 68 67 66 65 65 64 63 63 62 61 61 62 61 61 63 63 63 61 61 60 60 60 59 59 59 59 59 59 60 59 59
65 67 69 67 66 67 66 65 64 63 63 61 60 61 61 62 63 63 63 62 61 60 59 59 58 58 57 58 57 58 58 58 57
65 67 68 67 66 65 65 65 65 63 63 61 60 59 60 60 62 63 64 62 61 60 59 58 57 56 56 56 56 56 56 55 56
65 66 67 67 66 65 65 64 65 64 61 60 60 58 58 58 61 63 64 62 61 59 58 57 56 56 55 55 55 55 55 54 55
62 65 66 66 65 65 65 64 64 61 59 58 58 58 57 59 61 63 64 62 61 59 57 56 56 56 55 54 54 54 54 54 54
60 62 64 64 64 63 63 63 63 61 59 57 56 56 56 57 59 62 64 63 60 60 57 56 55 55 55 54 53 53 53 53 53
60 60 62 62 62 61 61 61 62 60 59 58 58 57 55 55 57 60 63 63 61 60 58 56 55 55 55 54 52 53 53 52 52
58 60 60 61 61 61 60 60 60 59 58 58 58 57 56 54 56 58 61 62 62 60 58 57 55 55 54 54 52 52 52 52 52
57 58 59 60 60 60 60 60 59 59 58 57 57 56 54 52 53 55 60 61 62 61 58 57 56 55 54 54 52 51 52 51 50
57 57 58 58 59 60 59 59 58 58 57 57 57 55 52 49 50 52 56 60 61 61 60 58 56 55 54 54 53 51 49 48 48
56 56 56 57 57 58 58 58 57 56 56 56 56 55 51 49 46 47 50 57 59 59 58 59 57 56 54 53 53 52 48 47 46
57 56 56 56 56 56 56 56 56 56 55 55 54 54 51 48 47 45 48 52 58 58 57 57 57 56 55 53 52 52 50 46 45
58 57 57 58 56 56 56 55 55 54 54 53 52 50 49 48 45 45 45 50 54 56 56 55 55 54 55 54 52 52 51 47 43
58 58 57 58 58 58 57 56 55 54 54 53 50 51 51 47 46 45 44 44 51 54 54 53 53 52 51 53 54 52 50 49 46
58 58 58 58 58 58 58 58 57 57 55 53 53 49 49 47 46 43 42 43 43 47 52 51 50 47 47 50 51 50 47 47 46
63 61 59 58 58 58 58 58 58 58 57 54 53 52 48 49 49 43 43 43 41 42 44 46 46 45 46 49 49 50 50 49 47
63 64 63 61 59 59 58 58 59 59 58 57 55 54 51 47 47 49 49 43 44 44 44 45 45 45 46 47 49 49 49 49 48

GFSFLT1_sfc_30mbdewp_084.txt.gz
Dewpoint
67 68 67 66 64 62 60 62 64 63 64 66 66 66 66 65 65 65 64 63 62 62 62 61 65 65 66 65 66 64 62 63 65
66 69 67 66 64 63 61 62 63 63 63 65 66 65 64 64 64 63 62 62 62 61 61 60 60 61 64 65 65 65 65 65 65
65 68 67 66 65 64 62 62 63 63 62 64 65 63 62 63 63 63 62 62 61 61 60 60 60 60 60 62 62 61 61 62 62
65 67 68 66 65 65 64 62 63 63 62 62 63 62 61 62 63 63 62 62 61 60 60 59 59 59 59 59 60 60 59 59 58
67 67 68 67 67 66 66 64 63 63 62 61 61 62 61 62 63 63 63 62 61 60 59 58 58 58 57 58 58 58 58 58 58
66 67 68 67 67 66 66 65 65 63 62 61 60 61 60 61 63 63 64 62 61 60 59 57 57 56 56 56 56 56 56 56 56
65 65 67 66 66 65 65 65 64 62 60 59 60 58 58 58 61 63 65 62 61 60 58 57 56 56 55 55 55 55 55 55 55
64 65 66 66 65 65 65 64 63 61 58 58 57 58 57 58 60 62 64 63 61 60 58 56 56 56 55 55 54 54 54 54 55
62 63 64 64 64 63 63 63 62 61 59 56 55 56 56 57 59 61 63 64 61 61 58 56 55 56 55 54 53 53 54 53 54
60 61 62 63 63 62 61 61 61 61 59 58 57 56 55 55 56 58 61 63 63 61 59 57 56 55 55 54 53 53 53 53 53
60 59 59 61 62 61 60 60 60 60 59 57 57 57 57 56 55 56 59 62 63 62 60 58 57 56 55 55 53 52 53 52 52
56 59 59 60 60 60 60 59 59 59 58 57 56 56 56 54 53 54 57 60 62 63 61 58 58 56 56 55 54 52 52 52 51
57 57 58 59 59 60 59 59 58 58 57 57 57 57 56 53 51 52 54 57 60 61 62 60 58 57 56 55 54 53 51 50 49
58 58 58 58 58 58 58 58 58 56 56 56 56 56 55 54 50 48 50 53 58 59 60 61 60 58 56 56 55 54 52 49 47
59 57 57 57 56 56 57 57 56 57 56 55 55 55 54 53 51 49 47 48 52 57 58 58 58 58 58 56 55 54 54 50 47
59 58 57 56 55 55 56 55 55 55 55 54 53 52 52 52 51 49 47 47 50 53 56 56 56 56 58 57 55 54 54 52 47
60 59 58 57 57 56 56 55 54 54 54 53 51 52 52 50 48 47 46 45 46 50 53 54 55 54 54 55 57 55 54 56 50
59 58 58 58 58 57 58 57 56 55 55 53 54 51 50 49 49 45 44 44 44 46 50 53 53 53 51 52 54 54 54 56 55
60 59 58 58 58 58 58 58 58 57 57 55 54 54 51 52 50 47 44 44 42 43 44 46 49 48 49 50 52 54 53 54 55
63 63 61 59 58 58 58 58 58 58 57 57 55 54 52 50 50 50 51 45 44 43 43 45 46 46 47 49 51 52 53 53 53

GFSFLT1_sfc_30mbdewp_087.txt.gz
Dewpoint
67 66 66 64 62 62 64 64 64 65 66 66 66 66 66 66 64 63 63 62 62 61 62 62 66 66 66 66 65 63 65 65 65
69 67 66 65 62 61 63 64 64 64 65 66 66 66 65 64 63 62 62 62 61 61 61 60 60 61 64 64 64 65 65 65 64
68 67 66 65 63 62 63 64 64 63 65 65 64 64 64 63 62 62 62 62 61 61 60 60 60 59 60 60 61 61 61 61 60
67 68 67 66 65 64 63 63 63 63 63 65 63 62 62 62 62 61 61 62 61 60 60 59 59 59 59 59 60 60 59 59 59
66 68 67 67 67 66 65 63 63 63 62 62 62 62 62 62 63 62 61 62 61 60 59 58 58 57 57 58 58 58 58 58 57
65 67 68 67 67 66 66 65 64 63 62 61 60 61 61 62 62 62 64 62 61 60 58 57 57 57 56 56 56 56 56 56 56
65 65 67 67 67 66 65 65 64 60 60 60 59 60 60 59 61 62 64 62 61 59 58 57 57 56 56 55 55 55 55 56 56
64 65 67 66 65 65 64 64 63 61 58 58 58 58 58 58 59 61 64 64 62 60 58 56 56 56 55 55 55 54 55 55 55
64 65 66 66 65 64 64 63 63 62 59 56 56 56 57 57 59 60 62 65 62 61 59 57 56 56 55 54 54 54 54 54 54
63 63 64 64 64 63 63 62 62 62 60 58 56 56 56 55 56 58 59 62 64 62 60 58 57 56 56 54 53 53 53 53 53
61 61 62 63 63 63 62 61 61 61 60 59 56 57 58 58 57 56 57 60 63 63 61 60 58 57 56 55 54 53 53 53 53
58 60 60 60 61 62 62 61 60 60 59 58 56 56 57 57 56 55 56 58 61 63 62 60 59 58 57 56 55 53 53 52 52
58 57 58 59 60 60 60 60 59 59 58 57 57 57 58 57 55 53 53 56 58 60 63 63 60 58 58 57 55 55 52 52 50
60 59 58 58 59 59 59 59 59 57 57 57 57 57 57 57 55 54 52 53 55 57 60 61 62 60 58 57 56 56 54 51 50
61 60 60 59 58 58 58 58 58 57 57 56 56 56 56 56 55 54 53 51 51 53 56 58 59 60 60 58 57 56 56 52 50
61 61 60 58 58 57 57 57 56 56 56 55 55 55 55 55 55 54 53 51 50 50 52 54 56 57 58 59 57 56 56 56 51
62 61 60 59 58 57 56 56 55 55 55 54 53 53 54 53 52 52 51 50 49 49 50 52 53 55 56 56 58 58 56 57 55
61 61 60 59 59 59 58 57 56 56 56 56 55 52 52 51 52 48 46 46 46 46 48 50 52 53 54 55 55 56 56 57 57
60 60 59 59 60 59 59 59 58 57 57 56 54 56 54 53 52 51 48 45 45 45 45 45 47 49 51 52 53 55 55 56 55
63 61 60 59 59 59 59 59 58 58 58 58 56 55 54 53 52 51 52 49 46 44 43 46 47 47 48 50 51 54 55 55 55

GFSFLT1_sfc_30mbdewp_090.txt.gz
Dewpoint
66 65 62 63 64 64 65 65 66 67 66 66 66 67 66 63 61 61 61 59 61 62 62 62 63 65 66 66 65 66 66 65 64
67 65 63 62 63 64 64 64 65 66 66 66 67 66 64 60 59 59 58 60 61 61 61 61 60 61 63 63 63 63 63 62 61
67 66 65 62 62 64 64 64 64 66 66 65 65 65 62 58 58 58 59 62 61 60 60 60 60 60 60 60 61 61 60 60 60
68 67 66 64 62 64 64 64 63 64 65 64 63 62 62 58 58 57 58 62 61 60 59 58 59 59 59 59 59 59 59 59 58
68 67 67 67 65 64 63 64 63 63 63 63 63 62 61 58 59 59 61 62 61 60 58 58 57 57 57 58 58 57 58 57 57
64 67 67 67 67 66 64 64 64 63 62 61 62 61 58 58 59 59 63 62 61 59 58 57 57 57 56 56 56 56 57 57 57
58 66 67 67 67 67 66 65 62 60 56 58 59 57 58 57 58 59 63 62 61 59 58 57 56 56 56 56 56 56 56 56 55
59 62 67 66 65 64 64 63 61 58 52 55 56 56 56 56 57 60 63 65 62 60 58 57 57 56 55 55 55 55 55 55 55
57 59 62 63 63 63 63 61 61 60 58 51 51 53 54 55 57 59 61 64 64 62 60 57 57 56 55 54 54 54 54 54 54
60 60 61 61 62 61 61 60 60 60 59 56 51 50 52 53 54 55 59 61 64 63 62 59 57 56 56 55 54 54 54 53 54
58 60 60 60 60 60 59 58 57 57 58 57 53 52 54 55 56 55 56 57 61 64 62 61 59 58 57 56 54 53 53 53 53
59 56 57 58 58 57 59 59 58 56 55 55 53 50 53 56 56 56 56 56 59 62 63 62 61 59 58 57 56 54 53 53 52
60 59 56 56 57 58 58 57 57 56 56 55 55 56 55 55 56 56 56 56 56 59 62 63 62 60 59 58 57 56 54 53 52
61 60 59 57 57 58 58 57 57 56 56 57 56 56 56 56 56 56 56 56 55 56 58 61 62 62 60 59 57 58 56 54 52
62 61 61 60 59 59 58 58 58 57 56 56 55 56 57 57 57 56 56 55 55 55 55 56 56 60 61 60 57 57 58 55 53
63 62 61 61 60 59 59 58 57 57 57 56 56 56 56 56 56 56 56 54 54 54 53 53 53 54 59 60 60 58 57 58 54
63 62 62 61 61 60 59 58 57 57 57 55 56 54 54 55 55 54 54 53 52 52 52 52 52 52 53 56 59 59 58 58 58
63 63 62 62 61 60 60 59 58 57 58 57 56 54 53 53 53 53 51 50 49 48 48 49 50 51 52 54 56 56 57 57 57
62 62 62 62 61 61 61 61 60 59 58 58 57 57 57 54 53 53 52 49 48 48 47 47 48 49 50 51 52 54 55 56 57
63 62 61 61 60 61 61 61 60 59 59 59 59 57 56 55 54 52 53 52 48 46 46 47 48 48 49 50 51 52 55 55 56

GFSFLT1_sfc_30mbdewp_093.txt.gz
Dewpoint
63 62 64 65 65 65 65 67 67 66 66 67 67 66 65 64 58 58 59 60 61 61 62 62 63 64 64 64 65 65 64 63 62
64 63 64 65 65 65 65 66 66 66 67 67 66 64 61 57 57 57 59 61 60 60 60 61 62 62 62 62 63 62 62 62 61
65 64 63 64 65 65 65 65 66 66 66 66 65 63 62 56 57 59 60 62 60 59 59 59 59 60 60 60 61 60 60 60 59
66 66 64 63 64 65 64 64 65 66 64 63 62 61 60 58 57 57 60 62 60 59 58 58 58 58 58 58 58 58 58 58 57
68 67 66 65 64 64 64 64 63 65 64 63 61 60 60 57 58 59 62 62 60 59 58 57 57 57 57 57 57 58 57 57 56
67 66 67 67 65 64 64 64 64 62 62 62 62 60 57 57 57 60 63 62 60 59 57 57 57 56 57 57 57 57 57 57 56
64 66 66 66 67 66 65 64 62 60 57 59 59 59 56 56 57 61 64 62 61 59 58 57 56 56 56 56 56 56 56 56 56
62 66 67 66 65 64 64 63 60 56 51 53 54 54 54 54 55 61 63 65 62 60 59 57 57 56 55 55 55 55 56 55 56
55 60 64 65 63 64 63 60 59 59 56 50 49 51 52 53 54 60 61 63 64 63 60 58 57 57 55 55 54 55 54 54 55
54 57 59 60 60 62 60 58 58 58 58 55 49 48 50 52 53 54 59 60 63 64 62 60 58 57 56 55 54 54 54 54 54
57 58 58 58 59 58 58 57 56 56 56 55 53 49 50 52 54 55 57 58 59 63 63 62 60 59 58 57 54 54 54 53 53
56 56 57 57 57 55 56 56 56 54 53 53 52 50 49 53 55 56 56 57 57 60 64 63 62 60 59 58 57 55 54 54 53
59 58 55 55 56 56 57 56 56 54 54 53 54 54 52 53 54 56 56 56 56 59 61 63 63 62 61 59 59 57 55 55 53
60 59 57 55 56 57 57 56 56 56 56 56 56 56 56 57 56 56 56 56 57 57 60 61 63 63 62 60 59 59 58 56 54
61 60 60 58 57 57 58 58 57 57 56 55 55 56 57 58 57 57 57 56 56 56 57 59 59 59 62 61 59 58 59 58 56
62 61 60 60 59 59 59 58 58 58 58 57 57 57 57 57 57 58 57 55 55 55 54 55 55 57 59 61 61 60 58 58 58
63 62 62 61 61 60 60 59 58 58 58 57 56 55 56 57 56 56 55 54 54 53 53 53 53 53 54 56 59 60 60 59 58
65 64 63 63 62 61 61 60 59 58 58 58 57 55 54 54 55 53 53 52 51 50 49 49 50 51 52 54 55 56 57 57 58
65 65 64 63 63 63 62 62 61 60 59 59 59 58 58 55 53 55 54 51 49 50 48 50 50 50 51 51 52 53 54 56 57
64 64 63 63 63 62 62 62 62 61 60 59 59 58 58 57 55 53 54 54 50 48 48 48 49 49 50 49 50 51 53 55 55

GFSFLT1_sfc_30mbdewp_096.txt.gz
Dewpoint
63 64 65 65 64 65 67 67 66 67 67 67 66 65 63 60 59 60 62 60 60 61 63 63 63 64 64 64 64 64 64 62 61
63 65 66 66 65 66 67 66 67 67 67 66 65 64 61 58 59 61 61 59 59 59 59 60 62 62 63 63 63 62 61 60 59
63 65 66 65 65 65 66 66 66 66 66 65 62 61 61 58 60 61 62 61 59 58 58 58 58 59 59 59 60 59 59 58 58
64 65 65 65 65 65 65 66 66 65 64 62 60 60 60 58 60 61 62 61 59 58 58 57 57 58 58 58 58 58 58 57 57
67 65 65 66 66 65 65 64 66 65 64 61 59 59 60 59 61 62 63 61 59 58 58 57 57 57 57 58 58 58 57 57 57
66 66 65 65 65 65 65 64 64 63 62 62 60 60 60 58 61 63 63 61 60 58 58 57 57 57 57 57 57 57 57 56 56
66 66 66 65 65 65 65 64 62 60 59 58 58 59 59 57 61 63 63 62 61 59 58 58 57 57 57 56 57 56 56 56 56
66 66 66 66 65 65 64 62 59 57 56 58 57 56 55 56 59 62 64 63 62 60 58 58 57 56 56 55 56 56 56 56 55
65 65 65 65 65 64 64 63 62 59 56 54 50 53 54 54 59 61 62 64 64 62 60 58 58 57 56 55 55 55 55 55 55
56 64 65 64 64 63 62 62 59 59 58 56 51 48 49 52 54 60 60 61 63 64 63 60 58 58 57 55 55 55 54 55 54
56 58 62 62 63 63 61 58 57 57 57 57 53 50 50 52 54 58 59 59 60 63 64 63 61 59 59 57 55 55 54 54 53
58 59 59 59 58 57 58 57 56 55 54 54 54 51 49 53 55 56 57 58 58 59 63 63 63 61 60 59 58 56 55 54 53
58 58 57 58 57 56 57 57 56 55 55 54 54 54 51 51 54 55 56 57 58 59 61 63 63 63 62 60 60 58 56 55 54
60 60 58 55 57 57 58 57 57 56 56 56 56 57 57 56 56 56 56 57 57 58 59 61 62 63 63 61 61 60 59 57 56
61 61 60 56 57 57 58 58 58 57 57 56 55 56 57 58 58 57 57 57 58 57 58 59 60 60 62 62 60 60 60 59 57
61 61 61 60 58 58 58 58 58 58 58 57 57 57 57 57 58 58 57 57 56 55 55 56 56 58 59 61 61 61 60 59 59
62 62 62 61 61 60 60 59 58 58 59 57 57 55 56 58 57 58 56 54 54 53 52 52 52 53 57 56 57 57 59 60 60
65 64 63 63 62 61 61 60 59 58 58 58 57 55 53 54 55 54 53 52 51 50 49 49 50 51 52 53 53 54 55 57 58
65 65 65 64 64 63 62 62 61 59 58 59 58 58 58 55 53 54 53 50 50 49 50 50 50 50 51 51 51 53 55 56 56
65 64 64 63 63 63 63 63 62 61 60 60 59 58 58 58 55 53 53 52 49 48 48 48 48 49 48 47 50 51 53 54 54

GFSFLT1_sfc_30mbdewp_099.txt.gz
Dewpoint
63 64 65 66 66 66 66 67 67 67 67 66 64 63 61 61 61 60 60 59 60 61 63 62 63 63 64 64 63 63 60 59 59
65 65 66 67 68 67 67 67 67 67 66 64 63 62 61 61 61 61 59 59 59 59 60 61 61 61 61 61 60 60 59 58 58
65 65 66 65 66 66 66 67 67 67 65 63 61 62 60 61 61 61 61 60 58 58 58 59 59 59 59 59 59 58 58 58 57
65 66 66 65 66 66 66 66 65 64 62 60 60 61 61 61 61 61 61 60 59 58 58 58 58 58 58 59 58 58 58 57 57
66 66 66 66 66 66 67 66 65 63 61 59 59 60 60 61 61 62 62 60 59 59 58 58 58 58 58 58 58 57 57 57 57
64 65 66 66 66 65 64 65 65 63 61 60 59 60 60 61 62 62 62 61 60 59 58 58 58 57 57 58 57 57 57 57 56
65 64 64 65 65 65 65 63 62 60 59 58 58 58 59 61 61 63 63 62 61 59 59 58 58 57 57 57 57 57 56 56 56
65 65 65 64 64 64 63 62 61 59 59 58 57 57 56 60 61 63 63 63 62 60 59 58 57 57 56 56 56 56 56 56 56
65 65 65 64 64 64 63 61 59 58 57 57 53 53 54 56 61 62 63 64 63 62 60 59 58 57 57 56 55 55 56 55 55
65 64 65 64 64 64 63 63 62 60 58 56 51 48 49 53 60 60 61 63 64 64 62 60 59 58 57 56 55 55 54 55 55
63 64 64 63 63 64 63 62 60 59 58 57 53 49 49 51 54 59 60 61 62 64 64 63 61 60 59 57 56 55 54 55 54
57 63 63 63 62 63 62 59 57 55 55 55 55 51 49 51 54 57 58 59 59 61 62 63 63 62 60 60 58 57 56 55 54
58 59 60 59 59 57 57 57 56 55 54 53 53 53 50 52 54 55 56 57 57 59 61 63 63 63 62 61 61 59 57 56 55
58 58 57 57 57 57 57 57 57 56 55 55 56 56 55 54 54 56 56 57 58 58 59 61 63 63 63 61 61 61 59 58 57
59 60 59 56 57 57 58 57 57 57 57 56 56 56 57 57 57 57 57 57 57 57 58 60 60 60 61 62 61 60 60 60 59
60 61 60 58 56 57 57 58 58 57 58 57 56 57 57 57 57 58 58 58 57 56 56 58 57 56 60 61 62 62 61 60 59
61 61 61 61 57 57 58 58 58 58 58 56 56 55 56 57 57 58 58 55 54 52 51 51 52 55 55 56 56 57 58 58 59
64 62 62 62 61 59 60 59 58 57 58 58 56 54 53 54 55 54 53 52 50 49 49 50 51 52 52 52 52 54 55 56 57
65 65 65 64 64 63 62 62 61 59 58 59 59 58 57 54 53 54 51 50 49 50 50 49 49 49 49 49 51 52 54 55 56
63 64 64 63 63 63 63 63 62 62 60 60 59 58 58 57 55 53 52 49 48 48 48 47 48 47 46 47 49 51 52 54 54

GFSFLT1_sfc_30mbdewp_102.txt.gz
Dewpoint
63 64 65 66 66 66 67 67 68 67 65 65 63 63 62 60 59 59 60 60 61 62 61 61 62 63 61 60 59 59 59 58 58
64 65 66 67 67 67 67 67 67 66 65 63 63 63 62 60 60 59 59 59 59 59 60 60 60 60 60 60 59 59 58 58 58
65 67 68 67 67 67 67 67 67 65 63 64 63 62 61 61 60 60 60 60 59 59 59 59 59 59 59 59 58 58 58 58 57
65 66 67 67 66 66 67 66 65 63 62 62 63 62 61 60 61 60 61 60 59 58 58 58 59 59 59 58 58 58 57 57 57
66 66 66 67 67 67 66 65 63 62 60 60 61 61 61 61 61 61 61 60 60 59 59 58 58 59 58 58 58 57 57 57 57
66 66 67 67 66 67 66 65 63 61 60 59 60 60 60 61 61 62 62 60 60 59 59 58 58 58 58 58 57 57 57 56 56
65 66 66 66 66 65 65 64 62 60 58 57 58 59 60 61 61 62 63 61 60 59 59 59 58 58 58 57 57 57 56 56 56
64 64 64 64 64 64 64 62 60 59 58 58 57 57 59 60 62 63 64 63 61 60 59 58 58 58 57 57 57 57 56 56 56
64 63 63 62 63 62 61 59 58 57 57 56 57 54 55 60 61 62 64 64 63 61 60 59 58 58 57 56 56 56 56 56 55
64 64 64 63 63 63 62 61 60 60 59 55 51 49 53 58 60 61 63 64 64 63 62 60 59 58 57 56 56 55 56 55 55
64 64 64 63 63 63 63 62 62 62 59 57 54 49 49 53 59 59 60 62 64 64 64 62 61 60 59 57 56 55 56 55 55
64 63 63 63 63 63 63 62 59 58 57 57 57 53 50 50 53 58 59 60 61 62 63 63 63 62 61 60 58 57 56 55 54
60 63 63 63 62 62 61 59 56 55 54 53 53 53 52 50 52 55 57 58 59 59 61 63 63 63 62 61 61 59 58 56 55
58 59 61 61 60 59 58 57 56 56 55 55 55 55 54 52 52 53 55 56 57 57 58 60 63 63 63 61 61 61 60 59 57
58 59 58 58 57 57 57 57 57 56 56 56 56 56 57 57 57 56 57 57 57 58 58 59 60 61 61 62 61 61 60 60 59
59 59 59 56 56 57 57 57 57 57 57 56 56 57 57 56 56 58 58 58 58 57 58 58 58 56 60 60 61 61 60 60 60
60 60 60 59 56 57 57 57 57 58 58 56 56 54 55 57 57 58 58 57 55 52 52 52 55 55 55 55 56 56 57 58 58
62 62 61 61 59 57 58 59 58 57 59 58 56 54 53 54 55 53 53 52 50 50 50 51 52 52 51 51 52 54 55 56 56
64 64 64 64 63 62 61 62 61 60 58 59 59 58 57 55 53 54 51 50 49 50 49 49 49 48 48 49 51 52 54 55 56
64 64 64 64 64 64 63 62 62 62 60 60 59 59 58 58 56 53 51 49 48 48 48 48 48 46 47 48 49 51 52 53 54

GFSFLT1_sfc_30mbdewp_105.txt.gz
Dewpoint
63 63 65 66 67 67 67 67 65 66 65 64 61 61 61 60 59 59 61 61 61 61 61 60 59 59 59 59 59 58 58 58 58
64 65 66 66 67 67 67 66 65 66 65 63 62 62 61 59 59 58 59 59 60 60 60 60 60 59 59 59 58 58 58 58 58
65 66 67 67 67 67 67 66 64 64 64 63 62 62 60 60 60 60 60 60 59 59 59 59 59 59 59 58 58 58 57 57 57
68 68 68 67 67 67 67 66 64 64 64 63 62 61 61 60 60 60 60 60 59 59 59 59 59 59 59 58 58 58 57 57 57
67 67 67 67 67 67 67 65 63 63 63 63 62 61 61 60 60 61 61 60 60 60 59 59 59 59 58 58 58 57 57 57 57
66 66 67 68 67 66 65 64 62 61 61 61 62 61 60 60 61 61 62 61 60 60 59 59 59 58 58 58 58 57 57 56 56
66 66 66 67 67 67 66 65 62 59 58 58 59 60 60 61 61 62 62 61 60 60 59 59 59 58 58 58 57 57 57 56 56
65 65 65 65 65 64 64 62 60 58 57 57 57 57 59 60 61 62 63 62 61 60 60 59 59 58 58 58 57 57 56 56 56
63 63 63 62 62 61 60 59 58 58 57 57 57 55 58 60 61 62 64 63 62 61 60 59 59 58 57 57 57 57 56 56 55
62 62 62 61 62 61 60 58 57 57 59 57 55 50 54 58 60 61 63 64 64 63 61 60 59 59 58 57 56 56 56 56 55
63 62 62 62 62 62 61 61 61 61 61 58 55 50 50 54 59 60 61 62 64 65 64 62 61 60 59 58 57 56 56 55 55
64 63 63 63 63 62 63 62 61 60 60 58 57 55 50 50 54 58 59 60 61 63 64 63 63 62 61 60 58 57 57 55 55
64 63 63 63 63 62 62 61 59 57 56 54 54 54 53 50 50 54 57 58 59 60 61 63 63 63 63 62 61 59 58 57 56
62 63 63 63 62 61 61 59 57 56 55 55 54 54 55 53 51 52 54 56 57 58 58 59 61 62 62 62 61 60 60 59 58
60 60 61 61 61 60 59 57 57 56 56 55 55 56 56 57 56 55 56 56 57 57 57 58 59 60 61 62 61 61 60 60 60
58 58 58 59 58 58 57 57 56 56 57 56 56 56 57 57 56 57 58 58 58 58 58 58 58 58 60 60 60 60 60 60 60
58 59 59 57 57 57 57 57 57 57 57 56 55 54 54 56 55 57 57 56 54 54 54 54 56 56 54 55 55 56 57 57 57
60 60 61 60 58 57 57 58 58 57 58 58 56 54 53 54 54 52 53 53 53 51 51 52 52 51 51 51 51 53 55 56 56
63 62 62 62 62 61 59 60 60 60 59 60 60 59 58 55 54 54 50 49 50 50 50 50 49 48 48 49 50 52 53 55 56
64 64 64 64 64 64 63 62 62 61 60 59 59 59 59 58 57 54 53 50 49 49 49 49 47 47 48 48 50 51 52 53 54

GFSFLT1_sfc_30mbdewp_108.txt.gz
Dewpoint
63 63 65 66 68 68 66 66 66 65 63 61 61 61 61 60 59 60 61 61 61 61 61 60 60 59 59 59 59 59 59 58 58
64 65 66 68 68 67 66 66 66 65 63 61 61 61 60 59 59 59 59 60 60 60 60 60 60 59 59 58 58 58 58 58 58
64 65 67 68 67 67 65 65 65 65 63 61 61 61 60 59 59 60 61 61 60 60 60 60 59 59 58 58 58 58 58 58 58
66 67 68 68 68 67 66 65 65 64 64 62 62 61 60 60 60 60 61 61 60 60 60 59 59 59 58 58 58 58 58 57 57
68 68 68 68 68 68 67 64 64 65 64 63 61 61 60 60 60 61 62 61 61 60 59 59 59 59 58 58 58 57 57 57 57
67 67 67 68 68 67 65 64 63 63 63 63 62 60 60 60 60 61 62 61 61 60 60 59 59 59 58 58 57 57 57 57 57
66 66 67 68 67 66 65 63 61 59 58 59 60 60 59 60 61 62 62 61 61 60 60 59 59 59 58 58 57 57 56 56 56
65 65 66 65 65 65 63 61 59 57 57 57 57 59 59 60 61 62 63 62 61 60 60 59 59 59 59 58 57 57 56 56 56
63 63 63 63 62 62 60 59 58 57 57 57 57 55 58 60 60 61 64 63 62 61 60 59 59 58 58 58 58 57 56 56 56
62 62 61 61 60 59 58 57 56 56 58 58 55 50 54 58 60 60 63 64 64 62 61 60 60 59 58 57 57 57 56 56 55
61 60 60 60 60 60 59 58 58 60 61 60 56 51 50 54 58 60 60 62 64 65 63 62 61 60 59 58 57 57 56 56 55
62 61 61 61 62 62 62 61 61 61 60 59 58 57 52 49 53 59 59 59 62 63 64 64 63 62 62 60 59 57 57 56 55
63 62 62 62 62 62 62 61 60 59 57 56 55 55 54 52 50 53 56 58 59 60 61 63 63 63 63 61 61 60 58 57 57
64 63 62 62 62 62 61 61 59 58 56 55 55 54 54 54 51 51 53 56 57 58 58 59 60 62 63 62 62 60 61 59 58
64 63 63 62 62 61 60 60 58 56 56 56 55 56 56 56 56 55 54 55 56 57 57 57 58 60 60 61 61 61 60 60 60
60 61 61 62 61 61 60 58 57 56 57 56 56 56 57 57 57 57 57 58 58 57 58 58 58 60 59 59 60 59 59 59 60
58 59 58 58 59 59 58 57 57 57 57 56 55 54 54 55 54 56 57 56 55 55 56 57 56 55 54 54 55 56 57 57 57
58 59 59 58 58 58 57 57 57 56 58 58 57 54 53 55 54 52 54 54 54 53 53 54 53 52 51 51 51 53 55 56 57
60 60 61 60 60 59 59 60 59 59 58 60 60 59 58 55 54 53 51 51 51 52 52 51 51 50 49 49 50 51 52 54 55
63 62 63 63 63 63 63 62 61 61 60 59 59 59 58 58 56 54 54 51 51 51 51 50 49 48 48 48 52 54 55 53 54

GFSFLT1_sfc_30mbdewp_111.txt.gz
Dewpoint
64 66 67 69 69 68 67 66 65 63 62 62 62 62 62 60 61 61 62 60 61 61 60 60 59 59 59 59 59 59 58 59 58
64 66 68 69 68 67 67 66 64 61 61 61 61 61 60 59 60 60 60 60 61 60 60 60 59 59 59 58 59 58 59 58 58
65 67 69 69 67 66 66 65 64 61 61 61 62 61 60 59 60 60 60 61 61 60 60 60 59 59 59 58 58 58 58 57 58
65 68 69 68 67 67 67 66 65 62 61 61 62 61 61 59 60 60 60 61 61 60 60 60 59 59 58 58 58 58 58 58 57
67 68 68 68 68 66 66 66 65 64 62 62 62 61 60 59 60 61 61 61 61 60 60 60 59 59 58 58 58 57 57 57 56
66 67 67 67 68 66 66 65 65 65 63 62 61 59 59 59 60 61 62 61 61 61 60 60 59 59 58 58 57 57 57 57 57
65 66 67 67 67 66 64 63 62 60 60 61 61 59 60 59 60 61 62 61 61 61 60 60 59 59 58 58 57 57 57 57 57
66 66 67 66 65 64 62 60 58 58 58 58 59 60 60 60 60 62 62 62 61 61 60 60 59 59 59 58 57 57 57 56 56
65 65 65 64 63 62 61 58 58 58 58 57 56 57 60 60 60 61 63 63 62 61 60 60 59 59 59 58 57 57 56 56 56
64 63 63 62 62 60 59 57 57 57 57 57 56 53 57 59 60 61 62 64 63 62 61 60 60 59 58 58 58 57 56 56 56
62 62 61 61 60 59 57 56 57 58 60 59 56 51 52 55 59 60 60 62 64 65 63 62 61 60 59 58 57 58 57 56 55
61 60 59 59 60 60 60 60 61 62 61 61 59 58 54 51 53 58 59 60 61 63 65 64 63 63 62 60 59 58 58 57 56
60 59 60 61 62 62 62 62 61 61 59 59 58 56 56 55 51 53 56 58 58 60 61 62 63 62 62 62 61 61 59 59 58
62 61 61 62 62 62 62 61 61 60 59 57 56 55 55 55 53 52 52 55 58 58 59 59 60 61 63 62 61 60 61 60 59
64 63 62 62 62 62 62 61 60 59 57 56 56 56 57 57 56 54 53 54 56 57 58 58 58 59 61 61 61 60 60 60 61
64 64 63 63 62 62 61 60 60 58 57 57 57 57 57 57 57 57 57 58 58 58 58 58 59 60 61 61 60 60 59 59 59
61 62 61 62 62 61 60 59 57 57 58 56 56 55 55 56 55 56 57 57 56 57 59 59 59 57 56 56 56 57 57 57 57
59 60 60 60 60 60 59 59 58 57 58 58 57 55 53 56 56 53 54 56 55 55 55 56 55 54 53 53 52 53 55 57 57
60 60 60 60 60 60 59 59 59 59 58 60 60 60 59 55 54 54 52 52 52 53 53 52 52 51 51 50 50 51 52 55 55
61 61 62 62 62 61 61 60 60 60 60 60 59 59 59 59 57 54 55 54 53 53 52 52 51 50 51 50 52 54 55 54 54

GFSFLT1_sfc_30mbdewp_114.txt.gz
Dewpoint
67 67 69 69 68 68 67 66 65 64 64 63 63 62 61 57 56 57 59 59 61 60 60 60 60 59 59 59 59 59 59 59 58
68 68 69 69 68 67 65 63 62 61 61 61 62 61 59 55 56 57 58 60 60 60 60 60 59 59 59 59 59 58 58 59 59
67 69 69 68 68 66 65 62 61 61 61 61 61 60 57 56 57 58 59 61 61 60 60 59 59 59 59 59 59 58 58 56 58
67 69 68 68 68 67 66 63 61 61 61 62 62 61 59 56 57 56 59 62 61 61 60 60 59 59 59 58 58 58 58 57 58
68 69 68 68 68 67 67 65 62 62 62 62 62 60 59 56 58 57 60 61 61 61 60 60 59 59 58 58 58 58 57 57 57
67 66 68 67 67 67 67 66 64 63 63 62 60 59 55 56 57 58 62 61 61 61 61 60 59 59 58 58 58 58 57 57 56
64 66 67 67 66 66 66 65 64 62 59 59 59 56 56 56 57 59 62 61 61 61 61 60 60 59 58 58 57 57 57 57 57
64 66 65 64 63 61 61 60 58 58 57 58 57 56 56 56 57 61 63 62 61 61 60 60 60 59 59 58 57 57 57 57 57
62 64 64 62 61 59 58 57 57 57 57 56 55 57 57 57 57 60 63 62 62 61 61 60 60 60 59 58 58 57 57 56 56
63 63 63 61 60 59 56 55 56 56 56 56 55 54 56 57 57 57 62 63 63 62 61 61 60 59 59 59 58 57 57 56 56
60 60 60 60 58 56 55 53 53 54 55 55 53 51 52 53 56 57 59 62 64 64 63 62 61 61 60 59 58 58 57 56 56
59 58 58 57 56 55 54 53 54 56 58 58 56 56 55 52 52 53 55 58 61 63 65 64 63 62 62 61 60 59 58 58 57
58 57 56 55 55 54 54 53 56 59 60 59 58 57 57 56 54 53 54 56 56 60 62 64 64 63 63 62 62 61 60 60 58
56 55 54 56 58 59 60 60 60 60 60 58 57 56 55 55 54 54 53 53 56 57 60 60 61 62 63 62 61 60 61 61 60
56 57 58 60 60 60 60 60 61 60 59 56 56 56 57 56 56 55 54 53 55 56 56 58 58 59 61 62 61 60 60 61 61
61 61 61 62 61 61 61 61 61 60 59 57 55 56 57 58 58 58 57 57 57 57 57 58 59 60 61 62 61 60 60 59 60
62 62 62 62 62 62 61 61 60 60 58 55 56 53 55 56 56 57 58 58 58 58 59 60 60 60 58 58 57 57 58 58 57
62 62 62 62 62 62 61 61 60 58 59 58 57 54 52 56 58 55 55 56 57 56 56 57 57 56 55 54 53 53 54 57 57
61 61 61 61 62 61 61 61 61 59 58 60 60 60 59 55 52 56 54 54 54 54 55 55 54 53 53 52 52 53 52 54 56
61 61 61 61 61 61 61 60 59 60 59 59 60 60 59 59 57 54 55 55 56 55 54 53 53 51 51 52 53 54 54 56 55

GFSFLT1_sfc_30mbdewp_117.txt.gz
Dewpoint
67 69 69 69 69 67 66 66 66 66 66 65 62 61 59 56 56 57 59 60 61 60 60 60 60 60 59 60 59 59 58 60 58
69 70 69 69 68 66 65 64 64 63 62 61 61 60 57 55 56 58 59 60 61 60 60 60 60 60 60 59 59 59 59 59 57
70 69 69 68 67 65 62 62 62 62 61 61 61 58 59 56 57 59 60 61 61 60 60 60 59 60 59 59 58 58 58 57 58
69 69 68 68 67 65 63 62 62 61 62 61 61 59 58 56 56 58 60 62 61 60 60 60 59 59 59 59 59 58 58 58 57
69 68 68 68 67 66 64 63 62 62 62 62 59 58 57 56 57 58 61 62 61 61 60 60 59 59 59 59 58 58 58 57 57
67 65 68 68 67 67 65 64 63 63 62 61 59 58 54 55 56 59 62 61 61 61 61 60 59 59 58 58 58 58 58 57 57
66 66 67 67 67 67 66 64 62 60 58 58 59 56 54 55 57 60 62 61 61 61 61 60 60 59 59 58 58 58 58 57 58
66 66 64 64 64 63 64 62 60 58 56 57 55 54 54 55 56 61 63 62 61 61 61 60 60 59 59 58 57 57 57 57 57
65 64 63 60 60 59 59 57 56 56 55 55 55 55 55 55 57 61 63 62 62 61 61 61 60 60 59 59 58 57 57 56 56
64 64 63 59 58 57 56 55 55 55 54 54 53 54 55 55 56 60 62 63 62 62 61 61 60 60 59 59 58 57 57 56 56
62 63 63 60 58 57 54 53 54 54 53 53 52 51 52 53 55 57 61 63 64 63 62 62 61 61 60 59 59 58 58 57 56
61 60 59 58 58 55 53 52 52 53 54 54 53 52 51 51 52 53 56 61 62 64 65 64 63 62 62 61 60 60 59 58 57
59 58 58 57 55 54 52 52 53 56 58 58 57 57 57 55 54 53 53 55 57 61 63 65 64 64 63 63 62 61 61 60 59
58 56 56 55 54 52 53 53 55 58 59 58 57 57 55 55 54 53 53 54 55 57 60 60 62 63 63 63 62 62 62 62 61
56 55 53 54 56 57 59 58 59 59 58 57 55 56 57 56 55 54 54 53 54 55 57 60 59 59 60 62 62 62 60 61 62
54 54 55 57 58 58 59 59 59 60 60 57 56 56 56 57 57 57 57 56 57 57 58 58 59 59 60 62 62 61 60 60 59
56 58 58 59 60 60 60 60 60 60 60 56 55 54 56 56 57 57 58 58 58 59 59 60 60 61 60 57 56 56 58 58 58
61 61 60 61 61 61 61 61 61 59 59 58 57 53 53 56 57 57 56 57 58 57 57 58 58 57 56 55 54 55 56 57 58
63 63 63 62 63 62 62 62 62 62 60 60 60 60 58 55 53 56 55 55 55 56 56 56 55 55 54 53 53 54 55 56 57
63 62 62 62 63 63 62 62 61 61 60 59 60 59 59 58 56 53 55 56 57 57 55 55 54 53 52 52 53 54 55 56 57

GFSFLT1_sfc_30mbdewp_120.txt.gz
Dewpoint
69 69 69 69 68 68 67 67 65 64 66 62 61 61 59 58 59 60 62 61 61 61 60 60 60 60 59 60 60 60 59 58 59
69 69 69 68 67 66 66 66 65 65 63 61 60 59 59 58 60 61 61 61 61 61 60 60 60 60 59 59 59 59 57 58 58
69 69 69 68 66 65 63 63 62 62 61 61 61 59 59 59 60 61 62 62 61 60 60 60 60 59 59 59 59 59 57 57 58
69 69 68 67 65 64 63 62 62 62 61 61 58 58 59 59 60 61 62 62 61 61 60 60 60 59 59 59 58 58 58 58 58
69 69 68 67 65 64 64 63 62 62 62 60 58 58 57 58 60 62 62 62 61 61 60 60 60 59 59 59 58 58 58 58 56
67 67 68 67 66 65 64 63 63 63 60 59 58 58 57 58 61 62 63 62 62 61 61 60 60 59 59 58 58 58 58 58 57
66 67 67 67 67 66 64 64 62 59 58 57 58 58 56 59 61 62 62 62 62 62 61 61 60 59 59 58 58 58 58 58 58
66 66 66 67 67 66 65 63 61 60 58 57 58 56 56 58 60 63 63 62 62 62 61 61 60 60 59 58 58 58 57 57 57
65 64 64 64 64 64 62 61 61 60 57 57 55 55 56 59 61 62 63 62 62 61 61 61 61 60 59 59 58 57 57 57 57
63 63 62 61 61 61 60 59 57 56 55 54 54 55 55 57 60 62 62 63 62 62 61 61 61 60 60 59 58 57 57 56 56
63 62 62 60 59 59 58 56 56 55 54 53 53 52 54 55 58 61 62 63 63 63 62 62 61 61 60 60 59 58 58 57 56
62 61 62 61 59 56 54 54 54 53 55 54 52 51 51 52 54 59 60 62 63 64 64 63 63 63 62 61 61 60 60 59 58
61 60 62 60 57 55 54 53 53 56 57 58 56 57 57 55 52 53 58 60 61 62 64 65 65 64 64 63 63 62 62 61 60
61 60 59 57 55 54 53 53 54 58 59 58 58 57 56 56 55 54 54 55 57 59 60 61 63 63 62 62 62 62 62 62 62
58 57 56 55 54 55 55 54 58 59 59 58 57 57 57 57 56 55 54 54 55 55 59 60 60 60 61 62 63 62 61 61 61
56 55 54 55 57 58 59 59 59 60 60 58 57 57 57 57 57 58 58 58 59 59 61 62 60 60 61 62 62 62 61 60 59
55 55 55 58 58 59 59 60 60 60 60 57 56 55 56 57 57 58 58 58 59 58 59 60 61 61 59 58 58 58 58 59 60
56 58 58 59 60 59 60 61 61 59 60 58 58 53 54 56 57 57 57 57 57 57 57 58 58 58 57 56 55 56 56 58 59
60 61 60 61 62 61 62 62 62 62 59 59 59 59 59 55 54 55 54 55 55 56 56 56 56 56 55 54 53 54 56 57 58
63 62 63 63 63 63 62 61 61 60 60 59 60 59 58 58 56 53 55 56 56 57 56 55 54 53 53 53 53 53 55 57 58